UAE2AY OMDB-EGPH

Flight info

Callsign UAE2AY
Flight time 8h 33m
Altitude 31000
Route ANVIX L223 TARDI N629 BOTAM Y855 LAKLU/N0509F300 Q204 NALKI G652 TOKRA DCT ALROK DCT BOSOB DCT ITRUX Y511 PMA/N0509F320 Z712 WEJ L677 GESON Q777 RASDA DCT OTHON DCT VAXOS DCT RDS UL609 MES DCT FSK DCT DISOR DCT LONTA UL608 DOLEV/N0487F340 DCT RADLY DCT SIMBA DCT KEMES DCT GASKA DCT MAPOX DCT SOGPO DCT SPY DCT MIMVA L602 NALAX L46 ESHIN N110 ERKIT DCT AGPED
Aircraft B77W/H-SDE1E2E3FGHIJ2J3J4J5M1RWXY/LB1D1

Departure

Time 2026-04-26 00:26
Airport Dubai International Airport (OMDB)

Arrival

Time 2026-04-26 08:59
Airport Edinburgh Airport (EGPH)
Time Latitude Longitude Altitude Speed Heading
2026-04-25 23:58 25.25022 55.36064 27 ft 0 kts 211°
2026-04-25 23:59 25.24969 55.36145 27 ft 0 kts 211°
2026-04-26 00:11 25.24980 55.36152 27 ft 4 kts 211°
2026-04-26 00:12 25.24998 55.36164 26 ft 4 kts 214°
2026-04-26 00:12 25.25019 55.36183 25 ft 4 kts 231°
2026-04-26 00:12 25.25032 55.36208 26 ft 4 kts 258°
2026-04-26 00:12 25.25031 55.36235 26 ft 4 kts 300°
2026-04-26 00:13 25.25017 55.36259 25 ft 4 kts 302°
2026-04-26 00:13 25.25003 55.36285 25 ft 4 kts 302°
2026-04-26 00:13 25.24997 55.36296 25 ft 0 kts 302°
2026-04-26 00:18 25.24998 55.36294 25 ft 3 kts 304°
2026-04-26 00:18 25.25047 55.36270 26 ft 9 kts
2026-04-26 00:18 25.25104 55.36248 27 ft 9 kts 322°
2026-04-26 00:19 25.25145 55.36197 27 ft 9 kts 304°
2026-04-26 00:19 25.25179 55.36140 27 ft 9 kts 302°
2026-04-26 00:19 25.25213 55.36081 27 ft 9 kts 302°
2026-04-26 00:19 25.25246 55.36022 27 ft 9 kts 301°
2026-04-26 00:20 25.25279 55.35962 27 ft 10 kts 300°
2026-04-26 00:20 25.25322 55.35880 27 ft 15 kts 301°
2026-04-26 00:20 25.25385 55.35769 27 ft 19 kts 302°
2026-04-26 00:20 25.25458 55.35637 27 ft 20 kts 301°
2026-04-26 00:21 25.25532 55.35505 27 ft 20 kts 301°
2026-04-26 00:21 25.25605 55.35372 27 ft 20 kts 301°
2026-04-26 00:21 25.25678 55.35239 27 ft 20 kts 301°
2026-04-26 00:21 25.25733 55.35174 27 ft 8 kts 348°
2026-04-26 00:22 25.25780 55.35202 27 ft 8 kts 59°
2026-04-26 00:22 25.25772 55.35261 27 ft 8 kts 127°
2026-04-26 00:22 25.25719 55.35286 27 ft 9 kts 163°
2026-04-26 00:22 25.25642 55.35326 27 ft 20 kts 138°
2026-04-26 00:23 25.25553 55.35464 27 ft 22 kts 122°
2026-04-26 00:23 25.25471 55.35611 27 ft 20 kts 121°
2026-04-26 00:23 25.25451 55.35720 27 ft 13 kts 62°
2026-04-26 00:23 25.25498 55.35765 27 ft 3 kts 33°
2026-04-26 00:24 25.25514 55.35777 27 ft 4 kts 33°
2026-04-26 00:24 25.25576 55.35828 27 ft 11 kts 54°
2026-04-26 00:24 25.25575 55.35913 27 ft 11 kts 111°
2026-04-26 00:24 25.25516 55.36028 27 ft 30 kts 121°
2026-04-26 00:25 25.25365 55.36305 27 ft 54 kts 121°
2026-04-26 00:25 25.25111 55.36752 27 ft 85 kts 121°
2026-04-26 00:25 25.24647 55.37588 27 ft 172 kts 122°
2026-04-26 00:25 25.23899 55.38948 121 ft 238 kts 121°
2026-04-26 00:26 25.23016 55.40545 807 ft 238 kts 122°
2026-04-26 00:26 25.22130 55.42116 1471 ft 245 kts 121°
2026-04-26 00:26 25.21231 55.43729 2127 ft 249 kts 121°
2026-04-26 00:26 25.20317 55.45364 2783 ft 249 kts 121°
2026-04-26 00:27 25.19409 55.46985 3523 ft 246 kts 121°
2026-04-26 00:27 25.18513 55.48579 4229 ft 242 kts 121°
2026-04-26 00:27 25.17609 55.50187 4602 ft 254 kts 121°
2026-04-26 00:27 25.16673 55.51851 4707 ft 258 kts 121°
2026-04-26 00:28 25.15707 55.53570 5130 ft 269 kts 121°
2026-04-26 00:28 25.14695 55.55368 5545 ft 283 kts 121°
2026-04-26 00:28 25.13554 55.57156 5901 ft 288 kts 137°
2026-04-26 00:28 25.11818 55.58207 6255 ft 288 kts 171°
2026-04-26 00:29 25.09853 55.58070 6601 ft 285 kts 203°
2026-04-26 00:29 25.08186 55.56937 6967 ft 281 kts 220°
2026-04-26 00:29 25.06676 55.55567 7342 ft 283 kts 221°
2026-04-26 00:29 25.05159 55.54168 7705 ft 285 kts 221°
2026-04-26 00:30 25.03641 55.52755 8067 ft 286 kts 221°
2026-04-26 00:30 25.02118 55.51332 8425 ft 287 kts 221°
2026-04-26 00:30 25.00597 55.49911 8790 ft 286 kts 221°
2026-04-26 00:30 24.99081 55.48495 9161 ft 285 kts 221°
2026-04-26 00:31 24.97569 55.47085 9551 ft 284 kts 221°
2026-04-26 00:31 24.96061 55.45681 9907 ft 283 kts 221°
2026-04-26 00:31 24.94556 55.44281 10240 ft 283 kts 221°
2026-04-26 00:31 24.93067 55.42898 10584 ft 285 kts 221°
2026-04-26 00:32 24.91497 55.41438 10736 ft 306 kts 221°
2026-04-26 00:32 24.89814 55.39874 10899 ft 327 kts 221°
2026-04-26 00:32 24.86113 55.36439 11255 ft 366 kts 221°
2026-04-26 00:33 24.84132 55.34605 11686 ft 377 kts 221°
2026-04-26 00:33 24.82106 55.32731 12234 ft 383 kts 221°
2026-04-26 00:33 24.80051 55.30832 12868 ft 387 kts 221°
2026-04-26 00:33 24.77982 55.28921 13514 ft 390 kts 221°
2026-04-26 00:34 24.75891 55.26989 14099 ft 394 kts 221°
2026-04-26 00:34 24.73788 55.25047 14728 ft 395 kts 220°
2026-04-26 00:34 24.71679 55.23100 15384 ft 396 kts 221°
2026-04-26 00:34 24.69564 55.21150 16007 ft 398 kts 221°
2026-04-26 00:35 24.67435 55.19185 16577 ft 401 kts 221°
2026-04-26 00:35 24.65288 55.17206 17170 ft 404 kts 221°
2026-04-26 00:35 24.63128 55.15215 17791 ft 405 kts 221°
2026-04-26 00:35 24.60965 55.13222 18383 ft 407 kts 221°
2026-04-26 00:36 24.58788 55.11218 18878 ft 410 kts 221°
2026-04-26 00:36 24.56622 55.09225 19368 ft 412 kts 221°
2026-04-26 00:36 24.54416 55.07195 19848 ft 415 kts 221°
2026-04-26 00:36 24.52192 55.05150 20343 ft 418 kts 221°
2026-04-26 00:37 24.49955 55.03094 20829 ft 421 kts 221°
2026-04-26 00:37 24.47704 55.01027 21324 ft 423 kts 221°
2026-04-26 00:37 24.45442 54.98950 21776 ft 427 kts 221°
2026-04-26 00:37 24.43157 54.96852 22225 ft 429 kts 221°
2026-04-26 00:38 24.40861 54.94747 22720 ft 431 kts 221°
2026-04-26 00:38 24.38552 54.92630 23189 ft 433 kts 221°
2026-04-26 00:38 24.36235 54.90507 23597 ft 435 kts 221°
2026-04-26 00:38 24.33912 54.88381 24094 ft 433 kts 221°
2026-04-26 00:39 24.31610 54.86275 24559 ft 432 kts 221°
2026-04-26 00:39 24.29292 54.84153 24857 ft 436 kts 221°
2026-04-26 00:39 24.26949 54.82010 25131 ft 440 kts 221°
2026-04-26 00:39 24.24588 54.79850 25452 ft 443 kts 221°
2026-04-26 00:40 24.22216 54.77683 25808 ft 445 kts 221°
2026-04-26 00:40 24.19830 54.75504 26152 ft 447 kts 221°
2026-04-26 00:40 24.17433 54.73317 26462 ft 450 kts 221°
2026-04-26 00:40 24.15023 54.71119 26783 ft 452 kts 221°
2026-04-26 00:41 24.12600 54.68909 27092 ft 454 kts 221°
2026-04-26 00:41 24.10164 54.66690 27389 ft 457 kts 221°
2026-04-26 00:41 24.07717 54.64461 27695 ft 459 kts 221°
2026-04-26 00:41 24.05257 54.62221 27966 ft 461 kts 221°
2026-04-26 00:42 24.02784 54.59971 28236 ft 463 kts 221°
2026-04-26 00:42 24.00300 54.57713 28457 ft 466 kts 221°
2026-04-26 00:42 23.97792 54.55433 28629 ft 470 kts 221°
2026-04-26 00:42 23.95271 54.53142 28871 ft 472 kts 221°
2026-04-26 00:43 23.92744 54.50848 29143 ft 473 kts 221°
2026-04-26 00:43 23.90209 54.48548 29371 ft 474 kts 221°
2026-04-26 00:43 23.87695 54.46268 29612 ft 476 kts 221°
2026-04-26 00:43 23.85143 54.43955 29843 ft 477 kts 221°
2026-04-26 00:44 23.82591 54.41643 30096 ft 477 kts 221°
2026-04-26 00:44 23.80039 54.39331 30366 ft 476 kts 221°
2026-04-26 00:44 23.77486 54.37021 30588 ft 477 kts 221°
2026-04-26 00:44 23.74933 54.34711 30804 ft 477 kts 222°
2026-04-26 00:45 23.72373 54.32397 31025 ft 477 kts 222°
2026-04-26 00:45 23.70646 54.30836 31172 ft 478 kts 222°
2026-04-26 00:45 23.67254 54.27771 31469 ft 478 kts 222°
2026-04-26 00:45 23.64696 54.25463 31676 ft 478 kts 223°
2026-04-26 00:46 23.62132 54.23149 31916 ft 478 kts 223°
2026-04-26 00:46 23.59570 54.20839 32135 ft 478 kts 223°
2026-04-26 00:46 23.57008 54.18530 32331 ft 478 kts 223°
2026-04-26 00:46 23.54443 54.16219 32527 ft 479 kts 223°
2026-04-26 00:47 23.51874 54.13906 32711 ft 479 kts 223°
2026-04-26 00:47 23.49307 54.11596 32924 ft 479 kts 224°
2026-04-26 00:47 23.46736 54.09284 33108 ft 479 kts 224°
2026-04-26 00:47 23.44165 54.06972 33293 ft 479 kts 224°
2026-04-26 00:48 23.41590 54.04659 33460 ft 480 kts 224°
2026-04-26 00:48 23.39015 54.02347 33629 ft 480 kts 224°
2026-04-26 00:48 23.36441 54.00036 33793 ft 480 kts 224°
2026-04-26 00:48 23.33860 53.97720 33913 ft 482 kts 224°
2026-04-26 00:49 23.28670 53.93067 34025 ft 484 kts 224°
2026-04-26 00:49 23.24344 53.89193 34020 ft 484 kts 224°
2026-04-26 00:50 23.19147 53.84545 34020 ft 484 kts 224°
2026-04-26 00:50 23.13952 53.79902 34025 ft 483 kts 224°
2026-04-26 00:51 23.08762 53.75269 34019 ft 483 kts 224°
2026-04-26 00:51 23.03568 53.70637 34018 ft 483 kts 225°
2026-04-26 00:52 22.98370 53.66006 34020 ft 483 kts 224°
2026-04-26 00:52 22.93173 53.61379 34025 ft 483 kts 224°
2026-04-26 00:53 22.87969 53.56752 34028 ft 484 kts 224°
2026-04-26 00:53 22.82796 53.52157 34024 ft 484 kts 224°
2026-04-26 00:54 22.77582 53.47530 34032 ft 485 kts 224°
2026-04-26 00:54 22.72359 53.42901 34030 ft 485 kts 224°
2026-04-26 00:55 22.67138 53.38277 34032 ft 485 kts 224°
2026-04-26 00:55 22.61912 53.33654 34025 ft 485 kts 224°
2026-04-26 00:56 22.56680 53.29030 34028 ft 486 kts 224°
2026-04-26 00:56 22.51444 53.24408 34029 ft 486 kts 224°
2026-04-26 00:57 22.46201 53.19784 34049 ft 487 kts 224°
2026-04-26 00:57 22.40947 53.15154 34032 ft 487 kts 224°
2026-04-26 00:58 22.35686 53.10524 34034 ft 488 kts 224°
2026-04-26 00:58 22.30418 53.05891 34024 ft 488 kts 224°
2026-04-26 00:59 22.25144 53.01259 34045 ft 489 kts 224°
2026-04-26 00:59 22.19866 52.96627 34044 ft 489 kts 224°
2026-04-26 01:00 22.14579 52.91992 34046 ft 490 kts 224°
2026-04-26 01:00 22.09286 52.87356 34031 ft 490 kts 224°
2026-04-26 01:01 22.04025 52.82752 34046 ft 490 kts 224°
2026-04-26 01:01 21.98729 52.78122 34047 ft 490 kts 224°
2026-04-26 01:02 21.93670 52.73290 34032 ft 477 kts 238°
2026-04-26 01:02 21.92085 52.70220 34033 ft 465 kts 256°
2026-04-26 01:02 21.91336 52.66870 34046 ft 459 kts 266°
2026-04-26 01:03 21.91211 52.63451 34038 ft 456 kts 278°
2026-04-26 01:03 21.91715 52.60109 34052 ft 452 kts 283°
2026-04-26 01:03 21.93024 52.53452 34052 ft 455 kts 284°
2026-04-26 01:04 21.94333 52.46783 34041 ft 455 kts 284°
2026-04-26 01:04 21.95590 52.40104 34042 ft 454 kts 283°
2026-04-26 01:05 21.96814 52.33431 34029 ft 454 kts 283°
2026-04-26 01:05 21.98027 52.26763 34038 ft 453 kts 283°
2026-04-26 01:06 21.99236 52.20106 34038 ft 453 kts 283°
2026-04-26 01:06 22.00435 52.13496 34036 ft 452 kts 283°
2026-04-26 01:07 22.01637 52.06854 34044 ft 452 kts 283°
2026-04-26 01:07 22.02837 52.00211 34053 ft 451 kts 283°
2026-04-26 01:08 22.04032 51.93578 34037 ft 450 kts 283°
2026-04-26 01:08 22.05222 51.86958 34044 ft 449 kts 283°
2026-04-26 01:09 22.06406 51.80351 34040 ft 448 kts 283°
2026-04-26 01:09 22.07586 51.73753 34040 ft 448 kts 283°
2026-04-26 01:10 22.08762 51.67163 34049 ft 447 kts 283°
2026-04-26 01:10 22.09928 51.60616 34038 ft 448 kts 283°
2026-04-26 01:11 22.11100 51.54017 34035 ft 448 kts 283°
2026-04-26 01:11 22.12270 51.47413 34051 ft 449 kts 283°
2026-04-26 01:12 22.13438 51.40802 34048 ft 449 kts 283°
2026-04-26 01:12 22.14606 51.34174 34044 ft 450 kts 283°
2026-04-26 01:13 22.15772 51.27546 34050 ft 450 kts 283°
2026-04-26 01:13 22.16934 51.20920 34050 ft 450 kts 283°
2026-04-26 01:14 22.18094 51.14288 34055 ft 450 kts 282°
2026-04-26 01:14 22.19252 51.07654 34058 ft 450 kts 282°
2026-04-26 01:15 22.20401 51.01057 34062 ft 450 kts 282°
2026-04-26 01:15 22.21561 50.94378 34057 ft 450 kts 282°
2026-04-26 01:16 22.22703 50.87787 34056 ft 450 kts 282°
2026-04-26 01:16 22.23849 50.81156 34047 ft 449 kts 282°
2026-04-26 01:17 22.24987 50.74549 34058 ft 447 kts 282°
2026-04-26 01:17 22.26121 50.67955 34056 ft 446 kts 282°
2026-04-26 01:18 22.27250 50.61374 34058 ft 445 kts 282°
2026-04-26 01:18 22.28375 50.54796 34062 ft 445 kts 282°
2026-04-26 01:19 22.29497 50.48223 34058 ft 445 kts 282°
2026-04-26 01:19 22.30617 50.41643 34053 ft 446 kts 282°
2026-04-26 01:20 22.31735 50.35060 34053 ft 446 kts 282°
2026-04-26 01:20 22.32852 50.28467 34057 ft 446 kts 282°
2026-04-26 01:21 22.33958 50.21921 34062 ft 446 kts 282°
2026-04-26 01:21 22.35074 50.15293 34063 ft 445 kts 282°
2026-04-26 01:22 22.36172 50.08765 34059 ft 445 kts 282°
2026-04-26 01:22 22.37274 50.02191 34058 ft 444 kts 282°
2026-04-26 01:23 22.38370 49.95633 34050 ft 444 kts 282°
2026-04-26 01:23 22.39465 49.89069 34054 ft 443 kts 282°
2026-04-26 01:24 22.40555 49.82517 34057 ft 444 kts 282°
2026-04-26 01:24 22.41645 49.75949 34066 ft 444 kts 282°
2026-04-26 01:25 22.42731 49.69390 34063 ft 444 kts 282°
2026-04-26 01:25 22.43815 49.62817 34061 ft 444 kts 282°
2026-04-26 01:26 22.44898 49.56244 34066 ft 445 kts 282°
2026-04-26 01:26 22.45979 49.49657 34072 ft 445 kts 282°
2026-04-26 01:27 22.47058 49.43068 34076 ft 445 kts 282°
2026-04-26 01:27 22.48127 49.36523 34069 ft 445 kts 282°
2026-04-26 01:28 22.49201 49.29930 34063 ft 445 kts 281°
2026-04-26 01:28 22.50273 49.23338 34083 ft 445 kts 281°
2026-04-26 01:29 22.51341 49.16744 34067 ft 444 kts 281°
2026-04-26 01:29 22.52405 49.10162 34069 ft 443 kts 281°
2026-04-26 01:30 22.53463 49.03596 34076 ft 443 kts 281°
2026-04-26 01:30 22.54516 48.97044 34075 ft 442 kts 281°
2026-04-26 01:31 22.55566 48.90496 34074 ft 442 kts 281°
2026-04-26 01:31 22.56613 48.83947 34072 ft 442 kts 281°
2026-04-26 01:32 22.57652 48.77435 34076 ft 442 kts 281°
2026-04-26 01:32 22.58695 48.70875 34087 ft 442 kts 281°
2026-04-26 01:33 22.59736 48.64315 34065 ft 442 kts 281°
2026-04-26 01:33 22.60771 48.57771 34078 ft 441 kts 281°
2026-04-26 01:34 22.61802 48.51232 34076 ft 440 kts 281°
2026-04-26 01:34 22.62830 48.44702 34076 ft 440 kts 281°
2026-04-26 01:35 22.63854 48.38171 34074 ft 440 kts 281°
2026-04-26 01:35 22.64875 48.31646 34075 ft 440 kts 281°
2026-04-26 01:36 22.65894 48.25116 34079 ft 440 kts 281°
2026-04-26 01:37 22.67410 48.15368 34079 ft 440 kts 281°
2026-04-26 01:37 22.68421 48.08843 34077 ft 439 kts 281°
2026-04-26 01:38 22.69355 48.02309 34076 ft 439 kts 277°
2026-04-26 01:38 22.69902 47.95728 34087 ft 439 kts 276°
2026-04-26 01:39 22.70432 47.89145 34088 ft 439 kts 277°
2026-04-26 01:39 22.70970 47.82566 34086 ft 438 kts 277°
2026-04-26 01:40 22.71511 47.75990 34091 ft 438 kts 277°
2026-04-26 01:40 22.72051 47.69418 34093 ft 438 kts 276°
2026-04-26 01:41 22.72588 47.62842 34100 ft 438 kts 276°
2026-04-26 01:41 22.73032 47.57385 34102 ft 438 kts 276°
2026-04-26 01:42 22.73563 47.50818 34102 ft 438 kts 276°
2026-04-26 01:42 22.74091 47.44254 34099 ft 437 kts 276°
2026-04-26 01:43 22.74616 47.37698 34103 ft 437 kts 276°
2026-04-26 01:43 22.75138 47.31145 34103 ft 436 kts 276°
2026-04-26 01:44 22.75656 47.24600 34107 ft 436 kts 276°
2026-04-26 01:44 22.76173 47.18049 34114 ft 436 kts 276°
2026-04-26 01:45 22.76695 47.11500 34114 ft 436 kts 276°
2026-04-26 01:45 22.77220 47.04945 34133 ft 436 kts 276°
2026-04-26 01:46 22.77742 46.98394 34124 ft 436 kts 276°
2026-04-26 01:46 22.78257 46.91878 34121 ft 436 kts 276°
2026-04-26 01:47 22.78772 46.85331 34123 ft 436 kts 276°
2026-04-26 01:47 22.79284 46.78786 34125 ft 436 kts 276°
2026-04-26 01:48 22.79792 46.72249 34127 ft 435 kts 276°
2026-04-26 01:48 22.80299 46.65708 34127 ft 435 kts 276°
2026-04-26 01:49 22.80802 46.59170 34131 ft 435 kts 276°
2026-04-26 01:49 22.81303 46.52633 34125 ft 435 kts 276°
2026-04-26 01:50 22.81801 46.46097 34140 ft 435 kts 276°
2026-04-26 01:50 22.82297 46.39549 34127 ft 435 kts 276°
2026-04-26 01:51 22.82784 46.33015 34118 ft 435 kts 276°
2026-04-26 01:51 22.83264 46.26489 34117 ft 434 kts 276°
2026-04-26 01:52 22.83739 46.20005 34111 ft 434 kts 275°
2026-04-26 01:52 22.84215 46.13482 34091 ft 434 kts 275°
2026-04-26 01:53 22.84689 46.06949 34095 ft 435 kts 275°
2026-04-26 01:53 22.85161 46.00408 34090 ft 435 kts 275°
2026-04-26 01:54 22.85631 45.93865 34093 ft 436 kts 275°
2026-04-26 01:54 22.86098 45.87312 34093 ft 436 kts 275°
2026-04-26 01:55 22.86562 45.80761 34087 ft 436 kts 275°
2026-04-26 01:55 22.87024 45.74218 34087 ft 435 kts 275°
2026-04-26 01:56 22.87482 45.67673 34084 ft 435 kts 275°
2026-04-26 01:56 22.87938 45.61131 34089 ft 435 kts 275°
2026-04-26 01:57 22.88391 45.54586 34086 ft 435 kts 275°
2026-04-26 01:57 22.88839 45.48087 34088 ft 435 kts 275°
2026-04-26 01:58 22.89287 45.41534 34087 ft 436 kts 275°
2026-04-26 01:58 22.89733 45.34979 34095 ft 436 kts 275°
2026-04-26 01:59 22.90176 45.28424 34093 ft 436 kts 275°
2026-04-26 01:59 22.90617 45.21865 34090 ft 436 kts 275°
2026-04-26 02:00 22.91055 45.15305 34086 ft 436 kts 275°
2026-04-26 02:00 22.91491 45.08747 34095 ft 436 kts 275°
2026-04-26 02:01 22.91924 45.02196 34093 ft 435 kts 275°
2026-04-26 02:01 22.92355 44.95644 34091 ft 436 kts 275°
2026-04-26 02:02 22.92783 44.89087 34086 ft 436 kts 275°
2026-04-26 02:02 22.93209 44.82534 34091 ft 435 kts 275°
2026-04-26 02:03 22.93632 44.75978 34088 ft 436 kts 275°
2026-04-26 02:03 22.94132 44.69472 34091 ft 435 kts 278°
2026-04-26 02:04 22.95411 44.63061 34089 ft 435 kts 286°
2026-04-26 02:04 22.97344 44.56835 34101 ft 435 kts 287°
2026-04-26 02:05 22.99291 44.50609 34098 ft 435 kts 287°
2026-04-26 02:05 23.01221 44.44383 34101 ft 435 kts 287°
2026-04-26 02:06 23.03142 44.38150 34120 ft 435 kts 287°
2026-04-26 02:06 23.05042 44.31971 34109 ft 434 kts 287°
2026-04-26 02:07 23.06952 44.25749 34107 ft 434 kts 287°
2026-04-26 02:07 23.08857 44.19535 34117 ft 433 kts 287°
2026-04-26 02:08 23.10757 44.13327 34119 ft 433 kts 287°
2026-04-26 02:08 23.12649 44.07136 34119 ft 432 kts 287°
2026-04-26 02:09 23.14539 44.00942 34128 ft 431 kts 286°
2026-04-26 02:09 23.16423 43.94757 34132 ft 431 kts 286°
2026-04-26 02:10 23.18305 43.88570 34139 ft 431 kts 286°
2026-04-26 02:10 23.20184 43.82384 34138 ft 431 kts 286°
2026-04-26 02:11 23.22058 43.76202 34138 ft 431 kts 286°
2026-04-26 02:11 23.23931 43.70016 34147 ft 431 kts 286°
2026-04-26 02:12 23.25802 43.63824 34154 ft 431 kts 286°
2026-04-26 02:12 23.27661 43.57666 34158 ft 432 kts 286°
2026-04-26 02:13 23.29529 43.51461 34150 ft 432 kts 286°
2026-04-26 02:13 23.31393 43.45251 34157 ft 432 kts 286°
2026-04-26 02:14 23.33257 43.39033 34159 ft 432 kts 285°
2026-04-26 02:14 23.35118 43.32814 34165 ft 432 kts 285°
2026-04-26 02:15 23.36977 43.26591 34171 ft 433 kts 285°
2026-04-26 02:15 23.38836 43.20362 34179 ft 433 kts 285°
2026-04-26 02:16 23.40695 43.14121 34175 ft 433 kts 285°
2026-04-26 02:16 23.42534 43.07915 34173 ft 433 kts 285°
2026-04-26 02:17 23.44378 43.01666 34180 ft 434 kts 285°
2026-04-26 02:17 23.46219 42.95418 34168 ft 433 kts 285°
2026-04-26 02:18 23.48060 42.89166 34169 ft 433 kts 285°
2026-04-26 02:18 23.49895 42.82920 34177 ft 433 kts 285°
2026-04-26 02:19 23.51729 42.76671 34175 ft 433 kts 285°
2026-04-26 02:19 23.53568 42.70424 34174 ft 433 kts 285°
2026-04-26 02:20 23.55414 42.64181 34168 ft 433 kts 285°
2026-04-26 02:20 23.57256 42.57935 34169 ft 433 kts 285°
2026-04-26 02:21 23.59093 42.51693 34163 ft 433 kts 285°
2026-04-26 02:21 23.60927 42.45446 34164 ft 433 kts 285°
2026-04-26 02:22 23.62759 42.39197 34161 ft 432 kts 285°
2026-04-26 02:22 23.64576 42.32990 34160 ft 432 kts 284°
2026-04-26 02:23 23.66402 42.26736 34158 ft 432 kts 284°
2026-04-26 02:23 23.68207 42.20474 34166 ft 433 kts 284°
2026-04-26 02:24 23.70006 42.14215 34171 ft 433 kts 284°
2026-04-26 02:24 23.71805 42.07950 34161 ft 432 kts 284°
2026-04-26 02:25 23.73603 42.01685 34157 ft 432 kts 284°
2026-04-26 02:25 23.75405 41.95429 34163 ft 431 kts 284°
2026-04-26 02:26 23.77221 41.89194 34166 ft 431 kts 284°
2026-04-26 02:26 23.79031 41.82966 34166 ft 430 kts 284°
2026-04-26 02:27 23.80834 41.76743 34176 ft 430 kts 284°
2026-04-26 02:27 23.82624 41.70521 34167 ft 429 kts 284°
2026-04-26 02:28 23.84409 41.64298 34169 ft 429 kts 284°
2026-04-26 02:28 23.86180 41.58121 34169 ft 429 kts 284°
2026-04-26 02:29 23.87959 41.51902 34172 ft 429 kts 284°
2026-04-26 02:29 23.89732 41.45683 34166 ft 428 kts 284°
2026-04-26 02:30 23.91500 41.39472 34169 ft 428 kts 284°
2026-04-26 02:30 23.93267 41.33258 34177 ft 427 kts 283°
2026-04-26 02:31 23.95026 41.27057 34167 ft 427 kts 283°
2026-04-26 02:31 23.96782 41.20856 34163 ft 426 kts 283°
2026-04-26 02:32 23.98531 41.14665 34162 ft 426 kts 283°
2026-04-26 02:32 24.00276 41.08483 34160 ft 425 kts 283°
2026-04-26 02:33 24.02017 41.02302 34155 ft 425 kts 283°
2026-04-26 02:33 24.03461 40.97168 34158 ft 425 kts 283°
2026-04-26 02:34 24.05193 40.90998 34161 ft 424 kts 283°
2026-04-26 02:34 24.06921 40.84828 34155 ft 424 kts 283°
2026-04-26 02:35 24.08644 40.78664 34152 ft 423 kts 283°
2026-04-26 02:35 24.10364 40.72499 34144 ft 423 kts 283°
2026-04-26 02:36 24.12079 40.66340 34148 ft 423 kts 283°
2026-04-26 02:36 24.13792 40.60182 34144 ft 423 kts 283°
2026-04-26 02:37 24.15515 40.54016 34146 ft 424 kts 284°
2026-04-26 02:37 24.17806 40.48038 34144 ft 430 kts 292°
2026-04-26 02:38 24.20600 40.42297 34149 ft 430 kts 292°
2026-04-26 02:38 24.23383 40.36501 34139 ft 430 kts 291°
2026-04-26 02:39 24.26151 40.30706 34140 ft 429 kts 291°
2026-04-26 02:39 24.28914 40.24912 34146 ft 429 kts 291°
2026-04-26 02:40 24.31676 40.19116 34141 ft 429 kts 291°
2026-04-26 02:40 24.34432 40.13323 34139 ft 428 kts 291°
2026-04-26 02:41 24.37182 40.07537 34139 ft 428 kts 291°
2026-04-26 02:41 24.39932 40.01744 34157 ft 428 kts 291°
2026-04-26 02:42 24.42677 39.95952 34152 ft 428 kts 291°
2026-04-26 02:42 24.45420 39.90156 34157 ft 428 kts 291°
2026-04-26 02:43 24.49533 39.81456 34166 ft 428 kts 291°
2026-04-26 02:43 24.52269 39.75696 34168 ft 430 kts 293°
2026-04-26 02:44 24.55925 39.70365 34170 ft 443 kts 304°
2026-04-26 02:44 24.60505 39.65724 34166 ft 456 kts 314°
2026-04-26 02:45 24.65671 39.61646 34155 ft 458 kts 315°
2026-04-26 02:45 24.70855 39.57593 34157 ft 457 kts 315°
2026-04-26 02:46 24.76008 39.53506 34138 ft 457 kts 314°
2026-04-26 02:46 24.81143 39.49402 34153 ft 456 kts 314°
2026-04-26 02:47 24.86267 39.45297 34159 ft 456 kts 314°
2026-04-26 02:47 24.91391 39.41188 34149 ft 455 kts 314°
2026-04-26 02:48 24.96510 39.37081 34141 ft 455 kts 314°
2026-04-26 02:48 25.01629 39.32970 34161 ft 455 kts 314°
2026-04-26 02:49 25.06711 39.28883 34150 ft 455 kts 314°
2026-04-26 02:49 25.11826 39.24765 34150 ft 455 kts 314°
2026-04-26 02:50 25.16938 39.20647 34140 ft 455 kts 314°
2026-04-26 02:50 25.21604 39.16112 34142 ft 441 kts 304°
2026-04-26 02:51 25.25462 39.10939 34146 ft 431 kts 296°
2026-04-26 02:51 25.28717 39.05395 34141 ft 430 kts 295°
2026-04-26 02:52 25.31938 38.99827 34123 ft 430 kts 295°
2026-04-26 02:52 25.35170 38.94266 34126 ft 430 kts 295°
2026-04-26 02:53 25.38413 38.88705 34136 ft 431 kts 295°
2026-04-26 02:53 25.41662 38.83136 34107 ft 431 kts 295°
2026-04-26 02:54 25.44908 38.77567 34104 ft 431 kts 295°
2026-04-26 02:54 25.48150 38.71997 34098 ft 430 kts 295°
2026-04-26 02:55 25.51387 38.66428 34093 ft 430 kts 295°
2026-04-26 02:55 25.54618 38.60863 34088 ft 430 kts 295°
2026-04-26 02:56 25.57822 38.55338 34083 ft 429 kts 295°
2026-04-26 02:56 25.61045 38.49773 34086 ft 429 kts 295°
2026-04-26 02:57 25.64262 38.44212 34081 ft 428 kts 295°
2026-04-26 02:57 25.67477 38.38649 34083 ft 428 kts 295°
2026-04-26 02:58 25.70685 38.33089 34084 ft 427 kts 295°
2026-04-26 02:58 25.73877 38.27554 34066 ft 425 kts 295°
2026-04-26 02:59 25.77056 38.22033 34064 ft 424 kts 295°
2026-04-26 02:59 25.80224 38.16523 34091 ft 423 kts 294°
2026-04-26 03:00 25.83363 38.11059 34073 ft 422 kts 294°
2026-04-26 03:00 25.86517 38.05557 34073 ft 423 kts 294°
2026-04-26 03:01 25.89672 38.00051 34089 ft 423 kts 294°
2026-04-26 03:01 25.92830 37.94534 34114 ft 423 kts 294°
2026-04-26 03:02 25.95980 37.89025 34112 ft 422 kts 294°
2026-04-26 03:02 25.98848 37.83400 34104 ft 413 kts 286°
2026-04-26 03:03 26.00774 37.77441 34117 ft 408 kts 281°
2026-04-26 03:03 26.01890 37.71319 34121 ft 404 kts 274°
2026-04-26 03:04 26.02697 37.65132 34110 ft 405 kts 274°
2026-04-26 03:04 26.03527 37.58934 34107 ft 406 kts 274°
2026-04-26 03:05 26.04371 37.52728 34099 ft 406 kts 274°
2026-04-26 03:05 26.05208 37.46525 34111 ft 406 kts 274°
2026-04-26 03:06 26.06029 37.40352 34091 ft 407 kts 274°
2026-04-26 03:06 26.06854 37.34126 34084 ft 407 kts 274°
2026-04-26 03:07 26.07677 37.27902 34084 ft 407 kts 274°
2026-04-26 03:07 26.08496 37.21687 34077 ft 406 kts 274°
2026-04-26 03:08 26.09313 37.15475 34081 ft 406 kts 274°
2026-04-26 03:08 26.10128 37.09259 34064 ft 406 kts 274°
2026-04-26 03:09 26.10938 37.03053 34056 ft 406 kts 274°
2026-04-26 03:09 26.11745 36.96843 34073 ft 406 kts 274°
2026-04-26 03:10 26.12551 36.90625 34059 ft 406 kts 274°
2026-04-26 03:10 26.13354 36.84406 34039 ft 406 kts 274°
2026-04-26 03:11 26.14155 36.78191 34052 ft 406 kts 274°
2026-04-26 03:11 26.14947 36.72011 34058 ft 406 kts 274°
2026-04-26 03:12 26.15743 36.65784 34043 ft 407 kts 274°
2026-04-26 03:12 26.16537 36.59552 34038 ft 407 kts 274°
2026-04-26 03:13 26.17491 36.53348 34051 ft 411 kts 282°
2026-04-26 03:13 26.19900 36.47481 34062 ft 421 kts 291°
2026-04-26 03:14 26.23461 36.42177 34064 ft 437 kts 304°
2026-04-26 03:14 26.27742 36.37344 34051 ft 438 kts 304°
2026-04-26 03:15 26.32019 36.32520 34055 ft 437 kts 304°
2026-04-26 03:15 26.36247 36.27681 34044 ft 435 kts 304°
2026-04-26 03:16 26.40447 36.22834 34049 ft 434 kts 304°
2026-04-26 03:16 26.44638 36.17985 34038 ft 434 kts 304°
2026-04-26 03:17 26.48823 36.13139 34039 ft 433 kts 304°
2026-04-26 03:17 26.53010 36.08288 34039 ft 434 kts 304°
2026-04-26 03:18 26.57167 36.03466 34039 ft 434 kts 304°
2026-04-26 03:18 26.61357 35.98601 34042 ft 434 kts 304°
2026-04-26 03:19 26.65544 35.93733 34039 ft 435 kts 304°
2026-04-26 03:19 26.69735 35.88855 34050 ft 435 kts 304°
2026-04-26 03:20 26.73930 35.83967 34035 ft 435 kts 304°
2026-04-26 03:20 26.78118 35.79083 34038 ft 435 kts 304°
2026-04-26 03:21 26.82303 35.74197 34046 ft 435 kts 304°
2026-04-26 03:21 26.86485 35.69310 34038 ft 435 kts 304°
2026-04-26 03:22 26.90663 35.64420 34035 ft 434 kts 304°
2026-04-26 03:22 26.94843 35.59523 34036 ft 434 kts 303°
2026-04-26 03:23 26.99016 35.54626 34041 ft 434 kts 303°
2026-04-26 03:23 27.03189 35.49725 34095 ft 434 kts 303°
2026-04-26 03:24 27.06658 35.45645 34049 ft 435 kts 303°
2026-04-26 03:24 27.10835 35.40730 34048 ft 434 kts 303°
2026-04-26 03:25 27.15003 35.35820 34043 ft 434 kts 303°
2026-04-26 03:25 27.19155 35.30923 34044 ft 433 kts 303°
2026-04-26 03:26 27.23299 35.26027 34045 ft 432 kts 303°
2026-04-26 03:26 27.27441 35.21129 34051 ft 432 kts 303°
2026-04-26 03:27 27.31583 35.16225 34046 ft 432 kts 303°
2026-04-26 03:27 27.35718 35.11324 34045 ft 432 kts 303°
2026-04-26 03:28 27.39857 35.06412 34048 ft 432 kts 303°
2026-04-26 03:28 27.43968 35.01527 34052 ft 433 kts 303°
2026-04-26 03:29 27.48106 34.96605 34055 ft 433 kts 303°
2026-04-26 03:29 27.52290 34.91718 34037 ft 436 kts 306°
2026-04-26 03:30 27.56716 34.87031 34043 ft 436 kts 306°
2026-04-26 03:30 27.61159 34.82373 34041 ft 436 kts 306°
2026-04-26 03:31 27.65585 34.77704 34038 ft 435 kts 306°
2026-04-26 03:31 27.69997 34.73030 34065 ft 435 kts 306°
2026-04-26 03:32 27.74407 34.68350 34041 ft 435 kts 306°
2026-04-26 03:32 27.78806 34.63676 34048 ft 434 kts 306°
2026-04-26 03:33 27.83194 34.59010 34035 ft 433 kts 306°
2026-04-26 03:33 27.87571 34.54348 34025 ft 432 kts 306°
2026-04-26 03:34 27.91937 34.49692 34028 ft 431 kts 306°
2026-04-26 03:34 27.96297 34.45039 34039 ft 431 kts 306°
2026-04-26 03:35 28.00554 34.40305 34033 ft 424 kts 301°
2026-04-26 03:35 28.04260 34.35174 34035 ft 421 kts 299°
2026-04-26 03:36 28.07941 34.30058 34018 ft 423 kts 300°
2026-04-26 03:36 28.11669 34.24892 34052 ft 424 kts 300°
2026-04-26 03:37 28.15411 34.19704 34089 ft 426 kts 300°
2026-04-26 03:37 28.19162 34.14497 34087 ft 427 kts 300°
2026-04-26 03:38 28.22922 34.09278 34103 ft 428 kts 300°
2026-04-26 03:38 28.26688 34.04036 34086 ft 428 kts 300°
2026-04-26 03:39 28.30426 33.98838 34091 ft 423 kts 299°
2026-04-26 03:39 28.34142 33.93652 34113 ft 424 kts 300°
2026-04-26 03:40 28.37880 33.88425 34091 ft 428 kts 300°
2026-04-26 03:40 28.41640 33.83168 34083 ft 429 kts 300°
2026-04-26 03:41 28.45408 33.77893 34079 ft 430 kts 300°
2026-04-26 03:41 28.49143 33.72659 34068 ft 429 kts 300°
2026-04-26 03:42 28.52895 33.67396 34078 ft 428 kts 299°
2026-04-26 03:42 28.56646 33.62117 34065 ft 430 kts 300°
2026-04-26 03:43 28.60412 33.56811 34067 ft 431 kts 300°
2026-04-26 03:43 28.64182 33.51497 34067 ft 431 kts 300°
2026-04-26 03:44 28.67949 33.46189 34045 ft 431 kts 300°
2026-04-26 03:44 28.71711 33.40886 34076 ft 430 kts 300°
2026-04-26 03:45 28.75466 33.35582 34064 ft 429 kts 300°
2026-04-26 03:45 28.79213 33.30282 34050 ft 429 kts 300°
2026-04-26 03:46 28.82931 33.25016 34059 ft 429 kts 300°
2026-04-26 03:47 28.88549 33.17042 34056 ft 430 kts 300°
2026-04-26 03:47 28.92294 33.11721 34053 ft 430 kts 300°
2026-04-26 03:48 28.96039 33.06392 34054 ft 431 kts 300°
2026-04-26 03:48 28.99789 33.01050 34048 ft 431 kts 300°
2026-04-26 03:49 29.03542 32.95696 34065 ft 432 kts 300°
2026-04-26 03:49 29.07296 32.90334 34056 ft 432 kts 300°
2026-04-26 03:50 29.11026 32.84999 34060 ft 433 kts 300°
2026-04-26 03:50 29.14783 32.79619 34058 ft 433 kts 300°
2026-04-26 03:51 29.18541 32.74231 34060 ft 433 kts 300°
2026-04-26 03:51 29.22297 32.68837 34062 ft 433 kts 299°
2026-04-26 03:52 29.26052 32.63439 34059 ft 433 kts 299°
2026-04-26 03:52 29.29800 32.58036 34080 ft 433 kts 299°
2026-04-26 03:53 29.33524 32.52611 34087 ft 433 kts 299°
2026-04-26 03:53 29.37248 32.47171 34087 ft 434 kts 299°
2026-04-26 03:54 29.40978 32.41718 34080 ft 435 kts 299°
2026-04-26 03:54 29.44709 32.36264 34081 ft 434 kts 299°
2026-04-26 03:55 29.48436 32.30805 34085 ft 435 kts 299°
2026-04-26 03:55 29.52163 32.25340 34095 ft 434 kts 299°
2026-04-26 03:56 29.55859 32.19914 34087 ft 434 kts 299°
2026-04-26 03:56 29.59566 32.14464 34101 ft 433 kts 299°
2026-04-26 03:57 29.63267 32.09014 34106 ft 432 kts 299°
2026-04-26 03:57 29.66964 32.03563 34118 ft 432 kts 299°
2026-04-26 03:58 29.70656 31.98112 34113 ft 432 kts 299°
2026-04-26 03:58 29.74348 31.92654 34112 ft 432 kts 299°
2026-04-26 03:59 29.78043 31.87185 34120 ft 433 kts 299°
2026-04-26 03:59 29.81648 31.81660 34114 ft 431 kts 298°
2026-04-26 04:00 29.85175 31.76140 34121 ft 431 kts 298°
2026-04-26 04:00 29.88785 31.70647 34108 ft 433 kts 304°
2026-04-26 04:00 29.91123 31.68343 34117 ft 451 kts 316°
2026-04-26 04:01 29.93880 31.66511 34121 ft 464 kts 323°
2026-04-26 04:01 29.96939 31.65154 34100 ft 483 kts 335°
2026-04-26 04:01 30.00278 31.64453 34120 ft 490 kts 340°
2026-04-26 04:02 30.07065 31.63370 34130 ft 493 kts 341°
2026-04-26 04:02 30.13865 31.62268 34098 ft 494 kts 340°
2026-04-26 04:03 30.20651 31.61080 34086 ft 493 kts 340°
2026-04-26 04:03 30.27419 31.59858 34106 ft 492 kts 340°
2026-04-26 04:04 30.34173 31.58634 34120 ft 491 kts 340°
2026-04-26 04:04 30.40929 31.57413 34100 ft 491 kts 340°
2026-04-26 04:05 30.47673 31.56195 34096 ft 490 kts 340°
2026-04-26 04:05 30.54396 31.54978 34093 ft 489 kts 340°
2026-04-26 04:06 30.61118 31.53759 34101 ft 489 kts 340°
2026-04-26 04:06 30.67847 31.52537 34093 ft 489 kts 340°
2026-04-26 04:07 30.74580 31.51313 34097 ft 489 kts 340°
2026-04-26 04:07 30.81266 31.50099 34086 ft 489 kts 340°
2026-04-26 04:08 30.87991 31.48877 34097 ft 490 kts 341°
2026-04-26 04:08 30.94732 31.47650 34089 ft 490 kts 341°
2026-04-26 04:09 31.01459 31.46424 34081 ft 490 kts 341°
2026-04-26 04:09 31.08190 31.45196 34083 ft 490 kts 341°
2026-04-26 04:10 31.14924 31.43964 34083 ft 490 kts 341°
2026-04-26 04:10 31.21671 31.42729 34078 ft 491 kts 341°
2026-04-26 04:11 31.28416 31.41487 34083 ft 491 kts 341°
2026-04-26 04:11 31.35123 31.40229 34108 ft 491 kts 341°
2026-04-26 04:12 31.41883 31.38957 34088 ft 493 kts 341°
2026-04-26 04:12 31.48659 31.37686 34077 ft 493 kts 341°
2026-04-26 04:13 31.55444 31.36423 34078 ft 495 kts 342°
2026-04-26 04:13 31.62341 31.35622 34087 ft 500 kts 346°
2026-04-26 04:14 31.69284 31.34968 34084 ft 501 kts 346°
2026-04-26 04:14 31.76231 31.34274 34079 ft 500 kts 346°
2026-04-26 04:15 31.83166 31.33555 34080 ft 500 kts 346°
2026-04-26 04:15 31.88932 31.32958 34084 ft 500 kts 346°
2026-04-26 04:16 31.96993 31.32114 34080 ft 500 kts 346°
2026-04-26 04:16 32.03924 31.31387 34085 ft 500 kts 346°
2026-04-26 04:17 32.09730 31.30779 34096 ft 501 kts 346°
2026-04-26 04:17 32.16679 31.30054 34083 ft 502 kts 346°
2026-04-26 04:18 32.23628 31.29313 34094 ft 502 kts 346°
2026-04-26 04:18 32.30537 31.28561 34093 ft 502 kts 346°
2026-04-26 04:19 32.37505 31.27804 34084 ft 503 kts 346°
2026-04-26 04:19 32.44484 31.27048 34082 ft 504 kts 346°
2026-04-26 04:20 32.51462 31.26290 34082 ft 504 kts 346°
2026-04-26 04:20 32.58245 31.24761 34090 ft 490 kts 335°
2026-04-26 04:21 32.64504 31.21826 34084 ft 479 kts 326°
2026-04-26 04:21 32.70461 31.18283 34080 ft 479 kts 325°
2026-04-26 04:22 32.76425 31.14738 34079 ft 479 kts 326°
2026-04-26 04:22 32.82368 31.11246 34101 ft 480 kts 326°
2026-04-26 04:23 32.88369 31.07729 34080 ft 482 kts 326°
2026-04-26 04:23 32.94385 31.04198 34076 ft 483 kts 326°
2026-04-26 04:24 33.00414 31.00652 34073 ft 484 kts 326°
2026-04-26 04:24 33.06453 30.97094 34071 ft 484 kts 326°
2026-04-26 04:25 33.12423 30.93416 34078 ft 482 kts 324°
2026-04-26 04:25 33.18238 30.89414 34072 ft 483 kts 323°
2026-04-26 04:26 33.24042 30.85359 34073 ft 484 kts 323°
2026-04-26 04:26 33.29872 30.81309 34072 ft 485 kts 323°
2026-04-26 04:27 33.35712 30.77268 34071 ft 485 kts 323°
2026-04-26 04:27 33.41552 30.73225 34075 ft 485 kts 323°
2026-04-26 04:28 33.47360 30.69199 34075 ft 486 kts 323°
2026-04-26 04:28 33.53207 30.65138 34062 ft 486 kts 323°
2026-04-26 04:29 33.59054 30.61069 34073 ft 486 kts 323°
2026-04-26 04:29 33.64898 30.56996 34075 ft 486 kts 323°
2026-04-26 04:30 33.70738 30.52917 34066 ft 486 kts 324°
2026-04-26 04:30 33.76592 30.48825 34069 ft 487 kts 324°
2026-04-26 04:31 33.82448 30.44724 34072 ft 487 kts 324°
2026-04-26 04:31 33.88309 30.40614 34069 ft 488 kts 324°
2026-04-26 04:32 33.94128 30.36526 34085 ft 488 kts 324°
2026-04-26 04:32 33.99992 30.32399 34073 ft 488 kts 324°
2026-04-26 04:33 34.05857 30.28265 34066 ft 488 kts 324°
2026-04-26 04:33 34.11717 30.24128 34069 ft 488 kts 324°
2026-04-26 04:34 34.17577 30.19985 34066 ft 488 kts 324°
2026-04-26 04:34 34.23436 30.15834 34077 ft 488 kts 325°
2026-04-26 04:35 34.29300 30.11673 34066 ft 489 kts 325°
2026-04-26 04:35 34.35166 30.07504 34065 ft 490 kts 325°
2026-04-26 04:36 34.41044 30.03321 34067 ft 490 kts 325°
2026-04-26 04:36 34.46655 29.98702 34062 ft 485 kts 316°
2026-04-26 04:37 34.51467 29.93051 34067 ft 481 kts 310°
2026-04-26 04:37 34.56082 29.87255 34066 ft 481 kts 310°
2026-04-26 04:38 34.60758 29.81425 34072 ft 482 kts 310°
2026-04-26 04:38 34.65451 29.75608 34063 ft 482 kts 310°
2026-04-26 04:39 34.70150 29.69785 34057 ft 482 kts 310°
2026-04-26 04:39 34.74842 29.63958 34062 ft 482 kts 310°
2026-04-26 04:40 34.79528 29.58126 34062 ft 482 kts 310°
2026-04-26 04:40 34.84206 29.52292 34062 ft 482 kts 311°
2026-04-26 04:41 34.88869 29.46467 34068 ft 484 kts 311°
2026-04-26 04:41 34.93577 29.40577 34054 ft 486 kts 311°
2026-04-26 04:42 34.98309 29.34666 34055 ft 488 kts 313°
2026-04-26 04:42 35.03553 29.29366 34076 ft 491 kts 321°
2026-04-26 04:43 35.09066 29.24423 34062 ft 492 kts 321°
2026-04-26 04:43 35.14580 29.19460 34056 ft 492 kts 321°
2026-04-26 04:44 35.20038 29.14487 34050 ft 492 kts 321°
2026-04-26 04:44 35.25519 29.09463 34052 ft 492 kts 321°
2026-04-26 04:45 35.30992 29.04434 34048 ft 492 kts 321°
2026-04-26 04:45 35.36463 28.99402 34049 ft 491 kts 321°
2026-04-26 04:46 35.41924 28.94371 34061 ft 491 kts 321°
2026-04-26 04:46 35.47390 28.89327 34053 ft 491 kts 322°
2026-04-26 04:47 35.52816 28.84311 34053 ft 492 kts 322°
2026-04-26 04:47 35.58285 28.79248 34051 ft 492 kts 322°
2026-04-26 04:48 35.66488 28.71636 34053 ft 493 kts 322°
2026-04-26 04:48 35.71961 28.66545 34051 ft 493 kts 322°
2026-04-26 04:49 35.77429 28.61450 34050 ft 493 kts 322°
2026-04-26 04:49 35.82898 28.56345 34053 ft 493 kts 322°
2026-04-26 04:50 35.88363 28.51236 34055 ft 493 kts 322°
2026-04-26 04:50 35.93820 28.46124 34052 ft 492 kts 322°
2026-04-26 04:51 35.99242 28.41037 34050 ft 492 kts 322°
2026-04-26 04:51 36.04688 28.35916 34047 ft 492 kts 323°
2026-04-26 04:52 36.10120 28.30800 34049 ft 491 kts 323°
2026-04-26 04:52 36.15546 28.25682 34041 ft 490 kts 323°
2026-04-26 04:53 36.20954 28.20571 34044 ft 489 kts 323°
2026-04-26 04:53 36.26357 28.15455 34036 ft 488 kts 323°
2026-04-26 04:54 36.31760 28.10330 34027 ft 489 kts 323°
2026-04-26 04:54 36.36975 28.04912 34045 ft 489 kts 319°
2026-04-26 04:55 36.41916 27.99165 34027 ft 491 kts 318°
2026-04-26 04:55 36.46900 27.93335 34027 ft 492 kts 318°
2026-04-26 04:56 36.51897 27.87523 34028 ft 493 kts 319°
2026-04-26 04:56 36.56911 27.81706 34033 ft 493 kts 319°
2026-04-26 04:57 36.61931 27.75873 34044 ft 493 kts 319°
2026-04-26 04:57 36.66934 27.70048 34056 ft 492 kts 319°
2026-04-26 04:58 36.71922 27.64228 34055 ft 491 kts 319°
2026-04-26 04:58 36.76869 27.58445 34060 ft 490 kts 319°
2026-04-26 04:59 36.81831 27.52634 34065 ft 489 kts 319°
2026-04-26 04:59 36.86785 27.46821 34059 ft 488 kts 319°
2026-04-26 05:00 36.91730 27.41008 34071 ft 488 kts 319°
2026-04-26 05:00 36.96677 27.35182 34070 ft 489 kts 319°
2026-04-26 05:01 37.01629 27.29339 34084 ft 490 kts 319°
2026-04-26 05:01 37.06591 27.23473 34074 ft 491 kts 319°
2026-04-26 05:02 37.11558 27.17590 34079 ft 492 kts 319°
2026-04-26 05:02 37.16522 27.11699 34080 ft 491 kts 319°
2026-04-26 05:03 37.21474 27.05810 34080 ft 490 kts 319°
2026-04-26 05:03 37.26421 26.99917 34071 ft 489 kts 319°
2026-04-26 05:04 37.31351 26.94033 34080 ft 488 kts 319°
2026-04-26 05:04 37.36228 26.88201 34087 ft 487 kts 319°
2026-04-26 05:05 37.41156 26.82382 34090 ft 484 kts 322°
2026-04-26 05:05 37.46263 26.76867 34095 ft 483 kts 323°
2026-04-26 05:06 37.51393 26.71410 34104 ft 482 kts 323°
2026-04-26 05:06 37.56492 26.65923 34105 ft 483 kts 322°
2026-04-26 05:07 37.61586 26.60405 34110 ft 483 kts 322°
2026-04-26 05:07 37.66683 26.54876 34098 ft 483 kts 323°
2026-04-26 05:08 37.71769 26.49342 34107 ft 482 kts 323°
2026-04-26 05:08 37.76846 26.43792 34110 ft 482 kts 323°
2026-04-26 05:09 37.81058 26.39180 34110 ft 482 kts 323°
2026-04-26 05:09 37.86947 26.32723 34110 ft 481 kts 323°
2026-04-26 05:10 37.91186 26.28080 34114 ft 481 kts 323°
2026-04-26 05:10 37.97065 26.21637 34126 ft 480 kts 323°
2026-04-26 05:11 38.01295 26.16991 34121 ft 480 kts 323°
2026-04-26 05:11 38.06338 26.11442 34124 ft 480 kts 323°
2026-04-26 05:12 38.11376 26.05890 34120 ft 479 kts 323°
2026-04-26 05:12 38.16408 26.00335 34137 ft 479 kts 323°
2026-04-26 05:13 38.21392 25.94822 34116 ft 478 kts 323°
2026-04-26 05:13 38.26434 25.89339 34130 ft 474 kts 326°
2026-04-26 05:14 38.31649 25.84231 34135 ft 472 kts 327°
2026-04-26 05:14 38.36893 25.79189 34137 ft 472 kts 327°
2026-04-26 05:15 38.42122 25.74126 34142 ft 471 kts 327°
2026-04-26 05:15 38.47325 25.69049 34145 ft 471 kts 327°
2026-04-26 05:16 38.52520 25.63961 34135 ft 470 kts 327°
2026-04-26 05:16 38.57703 25.58873 34148 ft 470 kts 327°
2026-04-26 05:17 38.62880 25.53783 34148 ft 469 kts 327°
2026-04-26 05:17 38.68015 25.48726 34134 ft 469 kts 327°
2026-04-26 05:18 38.73182 25.43628 34149 ft 468 kts 327°
2026-04-26 05:18 38.78338 25.38531 34157 ft 468 kts 327°
2026-04-26 05:19 38.83494 25.33425 34156 ft 468 kts 327°
2026-04-26 05:19 38.88650 25.28309 34154 ft 468 kts 327°
2026-04-26 05:20 38.93805 25.23185 34159 ft 468 kts 327°
2026-04-26 05:20 38.98955 25.18056 34157 ft 468 kts 326°
2026-04-26 05:21 39.04099 25.12923 34162 ft 468 kts 326°
2026-04-26 05:21 39.09247 25.07776 34161 ft 468 kts 326°
2026-04-26 05:22 39.14393 25.02622 34162 ft 469 kts 326°
2026-04-26 05:22 39.19504 24.97492 34155 ft 468 kts 326°
2026-04-26 05:23 39.24632 24.92336 34167 ft 467 kts 326°
2026-04-26 05:23 39.29754 24.87176 34159 ft 467 kts 326°
2026-04-26 05:24 39.34863 24.82019 34163 ft 466 kts 326°
2026-04-26 05:24 39.39966 24.76859 34164 ft 466 kts 326°
2026-04-26 05:25 39.45068 24.71690 34159 ft 466 kts 325°
2026-04-26 05:25 39.50164 24.66517 34161 ft 465 kts 325°
2026-04-26 05:26 39.55257 24.61337 34164 ft 465 kts 325°
2026-04-26 05:26 39.60341 24.56157 34165 ft 465 kts 325°
2026-04-26 05:27 39.65416 24.50975 34159 ft 464 kts 325°
2026-04-26 05:27 39.70492 24.45783 34162 ft 464 kts 325°
2026-04-26 05:28 39.75570 24.40579 34160 ft 464 kts 324°
2026-04-26 05:28 39.80607 24.35407 34159 ft 464 kts 324°
2026-04-26 05:29 39.85673 24.30193 34166 ft 463 kts 324°
2026-04-26 05:29 39.90722 24.24989 34164 ft 463 kts 324°
2026-04-26 05:30 39.95770 24.19775 34160 ft 463 kts 324°
2026-04-26 05:30 40.00813 24.14556 34164 ft 463 kts 324°
2026-04-26 05:31 40.05852 24.09332 34165 ft 462 kts 324°
2026-04-26 05:31 40.10878 24.04110 34158 ft 461 kts 323°
2026-04-26 05:32 40.15895 23.98887 34161 ft 461 kts 323°
2026-04-26 05:32 40.20903 23.93665 34161 ft 460 kts 323°
2026-04-26 05:33 40.25911 23.88432 34164 ft 460 kts 323°
2026-04-26 05:33 40.30877 23.83232 34167 ft 460 kts 323°
2026-04-26 05:34 40.35879 23.77985 34164 ft 460 kts 323°
2026-04-26 05:34 40.40881 23.72727 34157 ft 461 kts 323°
2026-04-26 05:35 40.45876 23.67467 34163 ft 461 kts 323°
2026-04-26 05:35 40.50882 23.62184 34162 ft 461 kts 323°
2026-04-26 05:36 40.55850 23.56932 34177 ft 461 kts 322°
2026-04-26 05:36 40.60851 23.51634 34166 ft 462 kts 322°
2026-04-26 05:37 40.65847 23.46329 34177 ft 461 kts 322°
2026-04-26 05:37 40.70838 23.41022 34167 ft 461 kts 322°
2026-04-26 05:38 40.75820 23.35712 34192 ft 460 kts 322°
2026-04-26 05:38 40.80795 23.30400 34196 ft 460 kts 322°
2026-04-26 05:39 40.85764 23.25083 34179 ft 459 kts 321°
2026-04-26 05:39 40.90727 23.19761 34175 ft 460 kts 321°
2026-04-26 05:40 40.95687 23.14432 34176 ft 459 kts 321°
2026-04-26 05:40 41.00644 23.09096 34170 ft 459 kts 321°
2026-04-26 05:41 41.05602 23.03748 34169 ft 460 kts 321°
2026-04-26 05:41 41.10436 22.98220 34173 ft 459 kts 315°
2026-04-26 05:42 41.14585 22.91843 34197 ft 459 kts 310°
2026-04-26 05:42 41.18668 22.85324 34171 ft 459 kts 310°
2026-04-26 05:43 41.22778 22.78836 34176 ft 459 kts 310°
2026-04-26 05:43 41.26930 22.72389 34190 ft 459 kts 312°
2026-04-26 05:44 41.31239 22.66125 34176 ft 459 kts 313°
2026-04-26 05:44 41.35566 22.59879 34202 ft 459 kts 312°
2026-04-26 05:45 41.39868 22.53603 34186 ft 458 kts 312°
2026-04-26 05:45 41.44148 22.47312 34189 ft 458 kts 312°
2026-04-26 05:46 41.48417 22.41015 34214 ft 457 kts 312°
2026-04-26 05:46 41.52649 22.34761 34189 ft 457 kts 312°
2026-04-26 05:47 41.56909 22.28453 34199 ft 457 kts 312°
2026-04-26 05:47 41.61163 22.22142 34196 ft 457 kts 311°
2026-04-26 05:48 41.65411 22.15828 34223 ft 457 kts 311°
2026-04-26 05:48 41.69655 22.09504 34204 ft 456 kts 311°
2026-04-26 05:49 41.76008 22.00011 34207 ft 456 kts 311°
2026-04-26 05:50 41.80232 21.93684 34213 ft 455 kts 311°
2026-04-26 05:50 41.84422 21.87393 34229 ft 455 kts 311°
2026-04-26 05:51 41.88641 21.81046 34236 ft 455 kts 311°
2026-04-26 05:51 41.92850 21.74702 34256 ft 455 kts 310°
2026-04-26 05:52 41.97055 21.68347 34243 ft 455 kts 310°
2026-04-26 05:52 42.01253 21.61992 34244 ft 454 kts 310°
2026-04-26 05:53 42.05438 21.55640 34204 ft 454 kts 310°
2026-04-26 05:53 42.09620 21.49280 34206 ft 453 kts 310°
2026-04-26 05:54 42.13799 21.42912 34203 ft 453 kts 310°
2026-04-26 05:54 42.17954 21.36520 34204 ft 453 kts 309°
2026-04-26 05:55 42.22035 21.30050 34213 ft 453 kts 309°
2026-04-26 05:55 42.26106 21.23557 34206 ft 453 kts 309°
2026-04-26 05:56 42.30151 21.17109 34208 ft 453 kts 309°
2026-04-26 05:56 42.34223 21.10620 34226 ft 452 kts 309°
2026-04-26 05:57 42.38286 21.04133 34228 ft 452 kts 308°
2026-04-26 05:57 42.42338 20.97647 34235 ft 451 kts 308°
2026-04-26 05:58 42.46387 20.91153 34237 ft 451 kts 308°
2026-04-26 05:58 42.50433 20.84648 34240 ft 452 kts 308°
2026-04-26 05:59 42.54480 20.78127 34230 ft 452 kts 308°
2026-04-26 05:59 42.58498 20.71638 34225 ft 452 kts 308°
2026-04-26 06:00 42.62565 20.65056 34217 ft 452 kts 308°
2026-04-26 06:00 42.66574 20.58555 34202 ft 452 kts 308°
2026-04-26 06:01 42.70600 20.52009 34204 ft 451 kts 308°
2026-04-26 06:01 42.74628 20.45446 34204 ft 451 kts 308°
2026-04-26 06:02 42.78647 20.38884 34210 ft 451 kts 308°
2026-04-26 06:02 42.82667 20.32337 34205 ft 451 kts 309°
2026-04-26 06:03 42.87172 20.26382 34227 ft 452 kts 316°
2026-04-26 06:03 42.91089 20.21654 34213 ft 452 kts 316°
2026-04-26 06:04 42.95788 20.15957 34220 ft 452 kts 316°
2026-04-26 06:04 43.00475 20.10230 34225 ft 452 kts 315°
2026-04-26 06:05 43.05154 20.04482 34238 ft 453 kts 315°
2026-04-26 06:05 43.09834 19.98717 34240 ft 453 kts 315°
2026-04-26 06:06 43.14515 19.92939 34250 ft 453 kts 315°
2026-04-26 06:06 43.19198 19.87147 34249 ft 454 kts 315°
2026-04-26 06:07 43.23885 19.81337 34237 ft 454 kts 315°
2026-04-26 06:07 43.28531 19.75568 34239 ft 454 kts 315°
2026-04-26 06:08 43.33205 19.69750 34232 ft 453 kts 315°
2026-04-26 06:08 43.37862 19.63944 34240 ft 451 kts 315°
2026-04-26 06:09 43.42494 19.58150 34238 ft 450 kts 315°
2026-04-26 06:09 43.47123 19.52349 34248 ft 450 kts 315°
2026-04-26 06:10 43.51760 19.46526 34253 ft 451 kts 315°
2026-04-26 06:10 43.56370 19.40726 34237 ft 452 kts 315°
2026-04-26 06:11 43.61013 19.34871 34243 ft 452 kts 315°
2026-04-26 06:11 43.65643 19.29019 34237 ft 451 kts 315°
2026-04-26 06:12 43.70274 19.23154 34242 ft 452 kts 315°
2026-04-26 06:12 43.74904 19.17276 34239 ft 452 kts 315°
2026-04-26 06:13 43.79534 19.11386 34244 ft 452 kts 315°
2026-04-26 06:13 43.84167 19.05479 34237 ft 453 kts 315°
2026-04-26 06:14 43.88798 18.99562 34234 ft 453 kts 315°
2026-04-26 06:14 43.93435 18.93623 34237 ft 454 kts 315°
2026-04-26 06:15 43.98075 18.87668 34241 ft 454 kts 315°
2026-04-26 06:15 44.02719 18.81694 34247 ft 455 kts 316°
2026-04-26 06:16 44.07330 18.75749 34234 ft 456 kts 316°
2026-04-26 06:16 44.11975 18.69747 34239 ft 456 kts 316°
2026-04-26 06:17 44.16629 18.63720 34228 ft 457 kts 316°
2026-04-26 06:17 44.21278 18.57686 34231 ft 457 kts 316°
2026-04-26 06:18 44.25921 18.51646 34240 ft 456 kts 316°
2026-04-26 06:18 44.30561 18.45596 34235 ft 456 kts 316°
2026-04-26 06:19 44.35187 18.39551 34233 ft 456 kts 316°
2026-04-26 06:19 44.39812 18.33493 34223 ft 455 kts 316°
2026-04-26 06:20 44.44424 18.27438 34223 ft 455 kts 316°
2026-04-26 06:20 44.49037 18.21368 34223 ft 455 kts 316°
2026-04-26 06:21 44.53621 18.15323 34229 ft 456 kts 316°
2026-04-26 06:21 44.58240 18.09218 34215 ft 456 kts 316°
2026-04-26 06:22 44.62862 18.03095 34221 ft 456 kts 316°
2026-04-26 06:22 44.67482 17.96961 34213 ft 457 kts 316°
2026-04-26 06:23 44.72101 17.90813 34217 ft 457 kts 316°
2026-04-26 06:23 44.76717 17.84655 34228 ft 458 kts 316°
2026-04-26 06:24 44.81335 17.78481 34223 ft 458 kts 316°
2026-04-26 06:24 44.85960 17.72282 34208 ft 459 kts 316°
2026-04-26 06:25 44.90579 17.66077 34215 ft 459 kts 315°
2026-04-26 06:25 44.95198 17.59858 34216 ft 459 kts 315°
2026-04-26 06:26 44.99785 17.53667 34212 ft 459 kts 315°
2026-04-26 06:26 45.04402 17.47422 34211 ft 459 kts 316°
2026-04-26 06:27 45.09019 17.41161 34213 ft 460 kts 315°
2026-04-26 06:27 45.13633 17.34890 34214 ft 460 kts 315°
2026-04-26 06:28 45.18252 17.28597 34211 ft 460 kts 315°
2026-04-26 06:28 45.22862 17.22302 34211 ft 460 kts 315°
2026-04-26 06:29 45.27475 17.15987 34227 ft 461 kts 315°
2026-04-26 06:29 45.32085 17.09662 34211 ft 461 kts 315°
2026-04-26 06:30 45.36693 17.03323 34216 ft 461 kts 315°
2026-04-26 06:30 45.41296 16.96978 34218 ft 461 kts 315°
2026-04-26 06:31 45.45899 16.90616 34214 ft 461 kts 315°
2026-04-26 06:31 45.50463 16.84293 34220 ft 460 kts 315°
2026-04-26 06:32 45.55047 16.77927 34220 ft 460 kts 315°
2026-04-26 06:32 45.59626 16.71553 34220 ft 460 kts 315°
2026-04-26 06:33 45.64199 16.65173 34218 ft 460 kts 315°
2026-04-26 06:33 45.68770 16.58779 34225 ft 460 kts 315°
2026-04-26 06:34 45.73350 16.52358 34223 ft 461 kts 315°
2026-04-26 06:34 45.77930 16.45920 34234 ft 462 kts 315°
2026-04-26 06:35 45.82513 16.39464 34217 ft 462 kts 315°
2026-04-26 06:35 45.87091 16.32998 34228 ft 461 kts 315°
2026-04-26 06:36 45.91632 16.26568 34229 ft 462 kts 315°
2026-04-26 06:36 45.96205 16.20079 34246 ft 462 kts 315°
2026-04-26 06:37 46.00774 16.13577 34244 ft 463 kts 315°
2026-04-26 06:37 46.05346 16.07056 34247 ft 463 kts 315°
2026-04-26 06:38 46.09917 16.00520 34234 ft 463 kts 315°
2026-04-26 06:38 46.14490 15.93966 34239 ft 463 kts 315°
2026-04-26 06:39 46.19059 15.87400 34237 ft 464 kts 315°
2026-04-26 06:39 46.23630 15.80816 34240 ft 464 kts 315°
2026-04-26 06:40 46.28163 15.74270 34243 ft 464 kts 315°
2026-04-26 06:40 46.32730 15.67659 34247 ft 465 kts 315°
2026-04-26 06:41 46.37298 15.61029 34246 ft 465 kts 315°
2026-04-26 06:41 46.41867 15.54380 34254 ft 466 kts 315°
2026-04-26 06:42 46.46433 15.47720 34256 ft 466 kts 315°
2026-04-26 06:42 46.50996 15.41047 34258 ft 466 kts 315°
2026-04-26 06:43 46.55558 15.34358 34254 ft 466 kts 315°
2026-04-26 06:43 46.60121 15.27652 34257 ft 467 kts 315°
2026-04-26 06:44 46.64696 15.20921 34258 ft 468 kts 316°
2026-04-26 06:44 46.69448 15.14443 34253 ft 468 kts 317°
2026-04-26 06:45 46.74281 15.08085 34257 ft 467 kts 318°
2026-04-26 06:45 46.79089 15.01726 34268 ft 467 kts 317°
2026-04-26 06:46 46.83880 14.95333 34272 ft 467 kts 317°
2026-04-26 06:46 46.88636 14.88948 34272 ft 467 kts 317°
2026-04-26 06:47 46.93418 14.82510 34268 ft 468 kts 317°
2026-04-26 06:47 46.98204 14.76050 34272 ft 468 kts 317°
2026-04-26 06:48 47.02997 14.69569 34280 ft 469 kts 317°
2026-04-26 06:48 47.07794 14.63064 34288 ft 470 kts 317°
2026-04-26 06:49 47.12598 14.56533 34287 ft 470 kts 317°
2026-04-26 06:49 47.17379 14.50017 34305 ft 466 kts 317°
2026-04-26 06:49 47.19741 14.46790 34556 ft 460 kts 317°
2026-04-26 06:50 47.22078 14.43596 34817 ft 459 kts 317°
2026-04-26 06:50 47.24423 14.40386 35082 ft 459 kts 317°
2026-04-26 06:50 47.26755 14.37190 35355 ft 458 kts 317°
2026-04-26 06:50 47.29081 14.33997 35627 ft 457 kts 317°
2026-04-26 06:51 47.31407 14.30800 35898 ft 456 kts 317°
2026-04-26 06:51 47.36028 14.24438 36137 ft 458 kts 317°
2026-04-26 06:51 47.38355 14.21229 36148 ft 456 kts 317°
2026-04-26 06:52 47.42962 14.14861 36149 ft 452 kts 317°
2026-04-26 06:52 47.47536 14.08523 36171 ft 450 kts 317°
2026-04-26 06:53 47.52105 14.02177 36166 ft 450 kts 316°
2026-04-26 06:53 47.56669 13.95821 36177 ft 451 kts 316°
2026-04-26 06:54 47.61242 13.89438 36177 ft 453 kts 316°
2026-04-26 06:54 47.65831 13.83013 36195 ft 454 kts 316°
2026-04-26 06:55 47.70428 13.76565 36199 ft 455 kts 316°
2026-04-26 06:55 47.75034 13.70087 36222 ft 457 kts 316°
2026-04-26 06:56 47.78869 13.64678 36218 ft 457 kts 316°
2026-04-26 06:56 47.83483 13.58158 36216 ft 458 kts 316°
2026-04-26 06:57 47.88107 13.51605 36224 ft 460 kts 316°
2026-04-26 06:57 47.92737 13.45028 36231 ft 460 kts 316°
2026-04-26 06:58 47.97365 13.38434 36230 ft 460 kts 316°
2026-04-26 06:58 48.01990 13.31830 36233 ft 459 kts 316°
2026-04-26 06:59 48.06601 13.25228 36222 ft 459 kts 315°
2026-04-26 06:59 48.11204 13.18618 36237 ft 459 kts 315°
2026-04-26 07:00 48.15809 13.11989 36237 ft 459 kts 315°
2026-04-26 07:00 48.20410 13.05350 36238 ft 459 kts 315°
2026-04-26 07:01 48.25035 12.98750 36238 ft 459 kts 317°
2026-04-26 07:01 48.29814 12.92488 36236 ft 460 kts 319°
2026-04-26 07:02 48.34671 12.86224 36244 ft 460 kts 318°
2026-04-26 07:02 48.39509 12.79904 36237 ft 461 kts 318°
2026-04-26 07:03 48.44335 12.73534 36238 ft 462 kts 317°
2026-04-26 07:03 48.49159 12.67135 36239 ft 462 kts 317°
2026-04-26 07:04 48.53979 12.60725 36236 ft 462 kts 317°
2026-04-26 07:04 48.58793 12.54308 36234 ft 462 kts 317°
2026-04-26 07:05 48.63605 12.47879 36256 ft 462 kts 317°
2026-04-26 07:05 48.68410 12.41442 36235 ft 461 kts 317°
2026-04-26 07:06 48.73200 12.35008 36240 ft 460 kts 317°
2026-04-26 07:06 48.77976 12.28575 36234 ft 459 kts 317°
2026-04-26 07:07 48.82749 12.22128 36235 ft 459 kts 317°
2026-04-26 07:07 48.87523 12.15665 36237 ft 460 kts 317°
2026-04-26 07:08 48.92298 12.09182 36243 ft 461 kts 317°
2026-04-26 07:08 48.97078 12.02675 36241 ft 461 kts 317°
2026-04-26 07:09 49.01852 11.96159 36249 ft 461 kts 317°
2026-04-26 07:09 49.06627 11.89623 36246 ft 462 kts 317°
2026-04-26 07:11 49.18542 11.73239 36252 ft 463 kts 317°
2026-04-26 07:11 49.23320 11.66637 36243 ft 463 kts 316°
2026-04-26 07:12 49.28094 11.60023 36239 ft 463 kts 316°
2026-04-26 07:12 49.32862 11.53400 36244 ft 463 kts 316°
2026-04-26 07:13 49.37628 11.46761 36245 ft 463 kts 316°
2026-04-26 07:13 49.42392 11.40104 36253 ft 463 kts 316°
2026-04-26 07:14 49.47154 11.33433 36245 ft 463 kts 316°
2026-04-26 07:14 49.51912 11.26752 36246 ft 463 kts 316°
2026-04-26 07:15 49.56770 11.20237 36265 ft 464 kts 321°
2026-04-26 07:15 49.61939 11.14278 36265 ft 465 kts 322°
2026-04-26 07:16 49.67099 11.08376 36277 ft 465 kts 322°
2026-04-26 07:16 49.72280 11.02387 36259 ft 465 kts 321°
2026-04-26 07:17 49.77452 10.96362 36266 ft 465 kts 321°
2026-04-26 07:17 49.82615 10.90325 36261 ft 465 kts 321°
2026-04-26 07:18 49.87776 10.84275 36270 ft 466 kts 321°
2026-04-26 07:18 49.92945 10.78201 36276 ft 466 kts 321°
2026-04-26 07:19 49.98112 10.72111 36276 ft 467 kts 321°
2026-04-26 07:19 50.03283 10.66001 36275 ft 467 kts 321°
2026-04-26 07:20 50.08450 10.59878 36271 ft 467 kts 321°
2026-04-26 07:20 50.13614 10.53741 36277 ft 467 kts 321°
2026-04-26 07:21 50.18777 10.47589 36296 ft 468 kts 321°
2026-04-26 07:21 50.23951 10.41406 36289 ft 469 kts 321°
2026-04-26 07:22 50.29131 10.35199 36280 ft 469 kts 321°
2026-04-26 07:22 50.34238 10.28963 36285 ft 468 kts 317°
2026-04-26 07:23 50.38749 10.21660 36291 ft 466 kts 309°
2026-04-26 07:23 50.42935 10.13892 36292 ft 467 kts 309°
2026-04-26 07:24 50.47134 10.06096 36293 ft 468 kts 309°
2026-04-26 07:24 50.51341 9.98332 36300 ft 469 kts 309°
2026-04-26 07:25 50.55587 9.90500 36295 ft 469 kts 309°
2026-04-26 07:25 50.59814 9.82683 36301 ft 469 kts 309°
2026-04-26 07:26 50.64039 9.74842 36306 ft 470 kts 309°
2026-04-26 07:26 50.68269 9.66967 36308 ft 471 kts 309°
2026-04-26 07:27 50.72499 9.59067 36308 ft 471 kts 309°
2026-04-26 07:27 50.76731 9.51140 36313 ft 472 kts 308°
2026-04-26 07:28 50.80955 9.43203 36315 ft 472 kts 308°
2026-04-26 07:28 50.85179 9.35240 36315 ft 473 kts 308°
2026-04-26 07:29 50.89374 9.27309 36313 ft 473 kts 308°
2026-04-26 07:29 50.93593 9.19307 36322 ft 473 kts 308°
2026-04-26 07:30 50.97811 9.11283 36326 ft 473 kts 308°
2026-04-26 07:30 51.02023 9.03244 36319 ft 473 kts 308°
2026-04-26 07:31 51.06226 8.95196 36324 ft 473 kts 308°
2026-04-26 07:31 51.10422 8.87141 36302 ft 473 kts 308°
2026-04-26 07:32 51.14357 8.78799 36305 ft 471 kts 300°
2026-04-26 07:32 51.17494 8.69665 36301 ft 470 kts 297°
2026-04-26 07:33 51.20556 8.60471 36327 ft 470 kts 297°
2026-04-26 07:33 51.23639 8.51276 36317 ft 470 kts 297°
2026-04-26 07:34 51.26736 8.42075 36304 ft 471 kts 297°
2026-04-26 07:34 51.29836 8.32852 36320 ft 471 kts 297°
2026-04-26 07:35 51.32927 8.23625 36326 ft 471 kts 297°
2026-04-26 07:35 51.36008 8.14389 36307 ft 471 kts 297°
2026-04-26 07:36 51.39082 8.05137 36311 ft 471 kts 297°
2026-04-26 07:36 51.42146 7.95879 36313 ft 470 kts 297°
2026-04-26 07:37 51.45202 7.86613 36335 ft 470 kts 296°
2026-04-26 07:37 51.48230 7.77398 36319 ft 470 kts 296°
2026-04-26 07:38 51.51268 7.68115 36313 ft 470 kts 296°
2026-04-26 07:38 51.54299 7.58824 36315 ft 470 kts 296°
2026-04-26 07:39 51.57325 7.49509 36324 ft 470 kts 296°
2026-04-26 07:39 51.60340 7.40196 36324 ft 470 kts 296°
2026-04-26 07:40 51.63350 7.30861 36324 ft 469 kts 296°
2026-04-26 07:40 51.66347 7.21529 36325 ft 469 kts 296°
2026-04-26 07:41 51.69338 7.12184 36329 ft 469 kts 296°
2026-04-26 07:41 51.72317 7.02839 36331 ft 468 kts 296°
2026-04-26 07:42 51.75289 6.93482 36335 ft 468 kts 296°
2026-04-26 07:42 51.78247 6.84131 36333 ft 468 kts 296°
2026-04-26 07:43 51.81200 6.74762 36338 ft 468 kts 296°
2026-04-26 07:43 51.84141 6.65394 36336 ft 467 kts 296°
2026-04-26 07:44 51.87074 6.56015 36345 ft 467 kts 295°
2026-04-26 07:44 51.89507 6.48207 36338 ft 467 kts 295°
2026-04-26 07:45 51.92421 6.38823 36342 ft 467 kts 295°
2026-04-26 07:45 51.95331 6.29421 36341 ft 466 kts 295°
2026-04-26 07:46 51.98586 6.20335 36342 ft 467 kts 303°
2026-04-26 07:46 52.02273 6.11653 36342 ft 467 kts 303°
2026-04-26 07:47 52.05959 6.02973 36347 ft 467 kts 303°
2026-04-26 07:47 52.09615 5.94253 36348 ft 467 kts 303°
2026-04-26 07:48 52.13254 5.85503 36346 ft 467 kts 303°
2026-04-26 07:48 52.16879 5.76753 36348 ft 467 kts 302°
2026-04-26 07:49 52.20504 5.67971 36346 ft 466 kts 302°
2026-04-26 07:49 52.24117 5.59194 36346 ft 466 kts 302°
2026-04-26 07:50 52.29492 5.46077 36347 ft 465 kts 302°
2026-04-26 07:50 52.33076 5.37293 36347 ft 464 kts 302°
2026-04-26 07:51 52.36619 5.28583 36346 ft 463 kts 302°
2026-04-26 07:51 52.40178 5.19801 36346 ft 462 kts 302°
2026-04-26 07:52 52.43726 5.11015 36349 ft 462 kts 302°
2026-04-26 07:52 52.47267 5.02217 36349 ft 462 kts 302°
2026-04-26 07:53 52.50804 4.93400 36349 ft 462 kts 302°
2026-04-26 07:53 52.54329 4.84577 36348 ft 462 kts 301°
2026-04-26 07:54 52.57717 4.75615 36350 ft 461 kts 300°
2026-04-26 07:54 52.61030 4.66577 36350 ft 461 kts 300°
2026-04-26 07:55 52.64346 4.57543 36349 ft 461 kts 300°
2026-04-26 07:55 52.67669 4.48507 36351 ft 461 kts 300°
2026-04-26 07:56 52.70988 4.39470 36356 ft 461 kts 300°
2026-04-26 07:56 52.74307 4.30401 36352 ft 461 kts 300°
2026-04-26 07:57 52.77614 4.21328 36359 ft 461 kts 300°
2026-04-26 07:57 52.80910 4.12253 36358 ft 461 kts 300°
2026-04-26 07:58 52.84199 4.03163 36358 ft 461 kts 300°
2026-04-26 07:58 52.87456 3.94129 36362 ft 460 kts 299°
2026-04-26 07:59 52.90726 3.85027 36358 ft 460 kts 299°
2026-04-26 07:59 52.93987 3.75915 36361 ft 459 kts 299°
2026-04-26 08:00 52.97240 3.66793 36367 ft 459 kts 299°
2026-04-26 08:00 53.00482 3.57670 36369 ft 459 kts 299°
2026-04-26 08:01 53.03711 3.48549 36367 ft 458 kts 299°
2026-04-26 08:01 53.06932 3.39422 36366 ft 458 kts 299°
2026-04-26 08:02 53.09781 3.29986 36370 ft 456 kts 290°
2026-04-26 08:02 53.11579 3.19904 36362 ft 455 kts 282°
2026-04-26 08:03 53.12905 3.09613 36364 ft 455 kts 281°
2026-04-26 08:03 53.14230 2.99302 36366 ft 455 kts 282°
2026-04-26 08:04 53.15571 2.89012 36363 ft 455 kts 282°
2026-04-26 08:04 53.16912 2.78722 36364 ft 454 kts 282°
2026-04-26 08:05 53.18243 2.68429 36366 ft 454 kts 282°
2026-04-26 08:05 53.19564 2.58135 36367 ft 454 kts 282°
2026-04-26 08:06 53.20875 2.47842 36366 ft 453 kts 282°
2026-04-26 08:06 53.22165 2.37553 36367 ft 453 kts 282°
2026-04-26 08:07 53.23442 2.27273 36375 ft 453 kts 281°
2026-04-26 08:07 53.24713 2.16979 36365 ft 453 kts 281°
2026-04-26 08:08 53.25975 2.06683 36367 ft 452 kts 281°
2026-04-26 08:08 53.27226 1.96393 36368 ft 452 kts 282°
2026-04-26 08:09 53.28469 1.86107 36369 ft 451 kts 281°
2026-04-26 08:09 53.29701 1.75822 36366 ft 451 kts 281°
2026-04-26 08:10 53.30923 1.65539 36366 ft 451 kts 281°
2026-04-26 08:10 53.32136 1.55266 36364 ft 451 kts 281°
2026-04-26 08:11 53.33422 1.45011 36366 ft 450 kts 283°
2026-04-26 08:11 53.34932 1.34862 36366 ft 449 kts 284°
2026-04-26 08:12 53.36439 1.24777 36367 ft 449 kts 284°
2026-04-26 08:12 53.37914 1.14609 36367 ft 449 kts 284°
2026-04-26 08:13 53.39365 1.04433 36367 ft 449 kts 283°
2026-04-26 08:13 53.40804 0.94263 36364 ft 448 kts 283°
2026-04-26 08:14 53.42234 0.84096 36364 ft 448 kts 283°
2026-04-26 08:14 53.43655 0.73929 36364 ft 448 kts 283°
2026-04-26 08:15 53.45065 0.63770 36364 ft 447 kts 283°
2026-04-26 08:15 53.46466 0.53607 36364 ft 447 kts 283°
2026-04-26 08:16 53.47860 0.43443 36361 ft 447 kts 283°
2026-04-26 08:16 53.49248 0.33271 36359 ft 447 kts 283°
2026-04-26 08:17 53.50635 0.23094 36360 ft 447 kts 283°
2026-04-26 08:17 53.52016 0.12906 36354 ft 447 kts 283°
2026-04-26 08:18 53.53378 0.02711 36357 ft 447 kts 282°
2026-04-26 08:18 53.54720 -0.07506 36366 ft 447 kts 282°
2026-04-26 08:19 53.56057 -0.17724 36374 ft 448 kts 282°
2026-04-26 08:19 53.57955 -0.27628 36393 ft 447 kts 299°
2026-04-26 08:20 53.61992 -0.35607 36365 ft 454 kts 321°
2026-04-26 08:20 53.67311 -0.41442 36372 ft 457 kts 324°
2026-04-26 08:21 53.72584 -0.47424 36372 ft 457 kts 323°
2026-04-26 08:21 53.77828 -0.53528 36376 ft 458 kts 322°
2026-04-26 08:22 53.83084 -0.59659 36365 ft 459 kts 322°
2026-04-26 08:22 53.88344 -0.65797 36358 ft 459 kts 322°
2026-04-26 08:23 53.93595 -0.71942 36360 ft 458 kts 322°
2026-04-26 08:23 53.98836 -0.78093 36362 ft 458 kts 322°
2026-04-26 08:24 54.04107 -0.84168 36361 ft 459 kts 326°
2026-04-26 08:24 54.09567 -0.89660 36353 ft 459 kts 327°
2026-04-26 08:25 54.15092 -0.95093 36353 ft 458 kts 327°
2026-04-26 08:25 54.20600 -1.00561 36354 ft 458 kts 327°
2026-04-26 08:26 54.26095 -1.06072 36362 ft 458 kts 326°
2026-04-26 08:26 54.31588 -1.11611 36352 ft 459 kts 326°
2026-04-26 08:27 54.37098 -1.17182 36357 ft 460 kts 326°
2026-04-26 08:27 54.42616 -1.22777 36353 ft 461 kts 326°
2026-04-26 08:28 54.48144 -1.28401 36344 ft 462 kts 326°
2026-04-26 08:28 54.53669 -1.34038 36354 ft 462 kts 326°
2026-04-26 08:29 54.59198 -1.39700 36347 ft 462 kts 326°
2026-04-26 08:29 54.64721 -1.45371 36346 ft 462 kts 326°
2026-04-26 08:30 54.70202 -1.51018 36345 ft 461 kts 326°
2026-04-26 08:30 54.75708 -1.56710 36354 ft 461 kts 326°
2026-04-26 08:31 54.78495 -1.59600 35560 ft 473 kts 326°
2026-04-26 08:31 54.81317 -1.62530 34814 ft 472 kts 326°
2026-04-26 08:31 54.84134 -1.65458 33853 ft 472 kts 325°
2026-04-26 08:31 54.86942 -1.68381 32874 ft 470 kts 325°
2026-04-26 08:32 54.88799 -1.70315 32246 ft 469 kts 325°
2026-04-26 08:32 54.91593 -1.73231 31278 ft 468 kts 325°
2026-04-26 08:32 54.94375 -1.76139 30584 ft 463 kts 325°
2026-04-26 08:32 54.97116 -1.79009 29851 ft 457 kts 325°
2026-04-26 08:33 54.99820 -1.81845 29178 ft 451 kts 326°
2026-04-26 08:33 55.02482 -1.84643 28537 ft 444 kts 326°
2026-04-26 08:33 55.05110 -1.87410 27905 ft 439 kts 326°
2026-04-26 08:33 55.07706 -1.90146 27322 ft 433 kts 326°
2026-04-26 08:34 55.10267 -1.92859 26703 ft 425 kts 324°
2026-04-26 08:34 55.12520 -1.96081 26103 ft 415 kts 308°
2026-04-26 08:34 55.14101 -2.00247 25567 ft 413 kts 297°
2026-04-26 08:34 55.15502 -2.04714 25019 ft 424 kts 297°
2026-04-26 08:35 55.16940 -2.09197 24442 ft 421 kts 297°
2026-04-26 08:35 55.18379 -2.13629 23863 ft 418 kts 298°
2026-04-26 08:35 55.19818 -2.18034 23197 ft 415 kts 298°
2026-04-26 08:35 55.21246 -2.22399 22570 ft 411 kts 297°
2026-04-26 08:36 55.22644 -2.26673 22051 ft 407 kts 297°
2026-04-26 08:36 55.24062 -2.31016 21465 ft 404 kts 297°
2026-04-26 08:36 55.25434 -2.35222 20945 ft 402 kts 297°
2026-04-26 08:36 55.26815 -2.39469 20392 ft 400 kts 297°
2026-04-26 08:37 55.28189 -2.43706 19870 ft 400 kts 297°
2026-04-26 08:37 55.29561 -2.47942 19334 ft 399 kts 297°
2026-04-26 08:37 55.30932 -2.52183 18790 ft 398 kts 297°
2026-04-26 08:37 55.32292 -2.56392 18192 ft 394 kts 297°
2026-04-26 08:38 55.33632 -2.60550 17625 ft 389 kts 297°
2026-04-26 08:38 55.34955 -2.64660 17087 ft 384 kts 297°
2026-04-26 08:38 55.36259 -2.68720 16565 ft 380 kts 297°
2026-04-26 08:38 55.37552 -2.72754 16055 ft 378 kts 297°
2026-04-26 08:39 55.38840 -2.76781 15549 ft 377 kts 297°
2026-04-26 08:39 55.40125 -2.80803 15036 ft 377 kts 297°
2026-04-26 08:39 55.41404 -2.84813 14531 ft 375 kts 297°
2026-04-26 08:39 55.42674 -2.88796 14001 ft 371 kts 297°
2026-04-26 08:40 55.43928 -2.92736 13447 ft 366 kts 297°
2026-04-26 08:40 55.45197 -2.96571 12906 ft 356 kts 303°
2026-04-26 08:40 55.46950 -2.99605 12448 ft 356 kts 323°
2026-04-26 08:40 55.49166 -3.01500 11967 ft 354 kts 339°
2026-04-26 08:41 55.51515 -3.02776 11514 ft 351 kts 340°
2026-04-26 08:41 55.53817 -3.03992 11324 ft 339 kts 340°
2026-04-26 08:41 55.56021 -3.05165 11284 ft 324 kts 340°
2026-04-26 08:41 55.58132 -3.06305 11196 ft 311 kts 340°
2026-04-26 08:42 55.60157 -3.07413 11104 ft 298 kts 339°
2026-04-26 08:42 55.62106 -3.08489 10960 ft 289 kts 339°
2026-04-26 08:42 55.63997 -3.09540 10774 ft 282 kts 339°
2026-04-26 08:42 55.65859 -3.10577 10519 ft 280 kts 339°
2026-04-26 08:43 55.67609 -3.11938 10102 ft 273 kts 320°
2026-04-26 08:43 55.68818 -3.14444 9631 ft 267 kts 291°
2026-04-26 08:43 55.69186 -3.17585 9267 ft 260 kts 264°
2026-04-26 08:43 55.68662 -3.20590 8896 ft 257 kts 237°
2026-04-26 08:44 55.67467 -3.22926 8521 ft 257 kts 222°
2026-04-26 08:44 55.66099 -3.24974 8202 ft 255 kts 220°
2026-04-26 08:44 55.64741 -3.26972 7879 ft 252 kts 224°
2026-04-26 08:44 55.63394 -3.28951 7308 ft 254 kts 207°
2026-04-26 08:45 55.61650 -3.29634 7152 ft 266 kts 178°
2026-04-26 08:45 55.59891 -3.28746 7020 ft 269 kts 150°
2026-04-26 08:45 55.58579 -3.26472 6997 ft 265 kts 121°
2026-04-26 08:45 55.58042 -3.23376 7015 ft 268 kts 93°
2026-04-26 08:46 55.58380 -3.20124 7014 ft 274 kts 65°
2026-04-26 08:46 55.59532 -3.17485 7006 ft 273 kts 37°
2026-04-26 08:46 55.61141 -3.15729 7018 ft 273 kts 26°
2026-04-26 08:46 55.62842 -3.14210 7015 ft 276 kts 25°
2026-04-26 08:47 55.64569 -3.12720 7015 ft 277 kts 25°
2026-04-26 08:47 55.66299 -3.11235 7006 ft 276 kts 25°
2026-04-26 08:47 55.68026 -3.09762 7014 ft 274 kts 25°
2026-04-26 08:47 55.69746 -3.08304 7004 ft 273 kts 24°
2026-04-26 08:48 55.71454 -3.06855 7010 ft 271 kts 24°
2026-04-26 08:48 55.73151 -3.05409 6999 ft 270 kts 24°
2026-04-26 08:48 55.74824 -3.03980 7001 ft 263 kts 24°
2026-04-26 08:48 55.76470 -3.02573 6861 ft 263 kts 24°
2026-04-26 08:49 55.78132 -3.01152 6529 ft 266 kts 25°
2026-04-26 08:49 55.79793 -2.99734 6195 ft 265 kts 25°
2026-04-26 08:49 55.81453 -2.98318 5869 ft 264 kts 25°
2026-04-26 08:49 55.83105 -2.96910 5536 ft 263 kts 25°
2026-04-26 08:50 55.84749 -2.95507 5205 ft 262 kts 25°
2026-04-26 08:50 55.86390 -2.94106 4888 ft 261 kts 25°
2026-04-26 08:50 55.88030 -2.92707 4549 ft 261 kts 25°
2026-04-26 08:50 55.89667 -2.91311 4235 ft 261 kts 25°
2026-04-26 08:51 55.92886 -2.88797 3999 ft 238 kts
2026-04-26 08:51 55.94505 -2.89060 4020 ft 239 kts 336°
2026-04-26 08:51 55.95967 -2.90345 4012 ft 229 kts 330°
2026-04-26 08:52 55.97344 -2.91645 4000 ft 218 kts 330°
2026-04-26 08:52 55.98669 -2.92892 3931 ft 215 kts 330°
2026-04-26 08:52 55.99997 -2.94151 3692 ft 217 kts 329°
2026-04-26 08:52 56.01323 -2.95408 3494 ft 215 kts 329°
2026-04-26 08:53 56.02639 -2.96652 3302 ft 214 kts 330°
2026-04-26 08:53 56.03952 -2.97913 3082 ft 211 kts 328°
2026-04-26 08:53 56.04983 -2.99568 2992 ft 194 kts 294°
2026-04-26 08:53 56.05269 -3.01868 3019 ft 189 kts 270°
2026-04-26 08:54 56.05297 -3.04212 3061 ft 188 kts 270°
2026-04-26 08:54 56.05095 -3.06466 3000 ft 182 kts 245°
2026-04-26 08:54 56.04562 -3.08490 3015 ft 181 kts 244°
2026-04-26 08:54 56.03993 -3.10501 3011 ft 182 kts 240°
2026-04-26 08:55 56.03364 -3.12468 3012 ft 183 kts 239°
2026-04-26 08:55 56.02709 -3.14429 2925 ft 186 kts 238°
2026-04-26 08:55 56.02046 -3.16399 2673 ft 185 kts 238°
2026-04-26 08:55 56.01382 -3.18366 2413 ft 180 kts 238°
2026-04-26 08:56 56.00760 -3.20210 2183 ft 169 kts 238°
2026-04-26 08:56 56.00180 -3.21927 1930 ft 151 kts 238°
2026-04-26 08:56 55.99666 -3.23448 1741 ft 142 kts 238°
2026-04-26 08:56 55.99151 -3.25002 1479 ft 146 kts 239°
2026-04-26 08:57 55.98625 -3.26540 1311 ft 145 kts 238°
2026-04-26 08:57 55.98100 -3.28081 1146 ft 147 kts 238°
2026-04-26 08:57 55.97568 -3.29638 912 ft 148 kts 238°
2026-04-26 08:57 55.97028 -3.31229 702 ft 153 kts 239°
2026-04-26 08:58 55.96474 -3.32876 517 ft 155 kts 239°
2026-04-26 08:58 55.95915 -3.34540 304 ft 159 kts 239°
2026-04-26 08:58 55.95341 -3.36248 122 ft 158 kts 239°
2026-04-26 08:58 55.94854 -3.37671 117 ft 76 kts 239°
2026-04-26 08:59 55.94632 -3.38336 115 ft 46 kts 239°
2026-04-26 08:59 55.94523 -3.38655 114 ft 23 kts 238°
2026-04-26 08:59 55.94453 -3.38860 116 ft 13 kts 239°
2026-04-26 08:59 55.94420 -3.38943 115 ft 4 kts 218°
2026-04-26 09:00 55.94380 -3.38959 119 ft 6 kts 174°
2026-04-26 09:00 55.94344 -3.38929 117 ft 6 kts 149°
2026-04-26 09:00 55.94310 -3.38894 116 ft 6 kts 149°
2026-04-26 09:00 55.94288 -3.38852 117 ft 4 kts 116°
2026-04-26 09:01 55.94288 -3.38794 119 ft 6 kts 79°
2026-04-26 09:01 55.94305 -3.38730 117 ft 6 kts 58°
2026-04-26 09:01 55.94328 -3.38661 117 ft 7 kts 58°
2026-04-26 09:01 55.94356 -3.38578 116 ft 9 kts 58°
2026-04-26 09:02 55.94391 -3.38479 117 ft 11 kts 58°
2026-04-26 09:02 55.94444 -3.38321 116 ft 19 kts 59°
2026-04-26 09:02 55.94523 -3.38086 116 ft 24 kts 59°
2026-04-26 09:02 55.94612 -3.37821 117 ft 25 kts 59°
2026-04-26 09:03 55.94702 -3.37556 117 ft 25 kts 59°
2026-04-26 09:03 55.94792 -3.37291 117 ft 25 kts 59°
2026-04-26 09:03 55.94881 -3.37030 117 ft 25 kts 58°
2026-04-26 09:03 55.94973 -3.36762 116 ft 25 kts 58°
2026-04-26 09:04 55.95058 -3.36511 116 ft 20 kts 59°
2026-04-26 09:04 55.95119 -3.36329 116 ft 12 kts 59°
2026-04-26 09:04 55.95131 -3.36240 118 ft 7 kts 93°
2026-04-26 09:04 55.95126 -3.36191 117 ft 0 kts 103°
2026-04-26 09:07 55.95126 -3.36189 117 ft 1 kts 102°
2026-04-26 09:07 55.95123 -3.36170 117 ft 0 kts 106°
2026-04-26 09:08 55.95121 -3.36155 118 ft 3 kts 106°
2026-04-26 09:08 55.95112 -3.36102 117 ft 6 kts 106°
2026-04-26 09:09 55.95100 -3.36032 120 ft 6 kts 108°
2026-04-26 09:09 55.95083 -3.35957 117 ft 7 kts 117°
2026-04-26 09:09 55.95061 -3.35884 117 ft 7 kts 120°
2026-04-26 09:09 55.95034 -3.35847 116 ft 4 kts 161°
2026-04-26 09:10 55.95007 -3.35849 117 ft 4 kts 191°
2026-04-26 09:10 55.94975 -3.35854 117 ft 5 kts 177°
2026-04-26 09:10 55.94937 -3.35856 118 ft 5 kts 193°
2026-04-26 09:10 55.94908 -3.35895 117 ft 5 kts 228°
2026-04-26 09:11 55.94893 -3.35930 118 ft 2 kts 236°
2026-04-26 09:11 55.94888 -3.35945 118 ft 1 kts 237°
2026-04-26 09:11 55.94885 -3.35952 116 ft 0 kts 237°
2026-04-26 09:11 55.94885 -3.35953 121 ft 0 kts 239°